| time (UTC) | temp F | wind direction | speed MPH | gust MPH | rain 1hr in | rain 24hr in | rain mn in | humidity % | barometer mb |
| 20260508122203 | 63 | 110 | 2.0 | 7.0 | 0.00 | 0.00 | 0.00 | 67 | 1009.1 |
| 20260508122103 | 63 | 110 | 2.0 | 7.0 | 0.00 | 0.00 | 0.00 | 67 | 1009.1 |
| 20260508122002 | 63 | 111 | 2.0 | 7.0 | 0.00 | 0.00 | 0.00 | 66 | 1009.1 |
| 20260508121903 | 63 | 111 | 2.0 | 7.0 | 0.00 | 0.00 | 0.00 | 67 | 1009.2 |
| 20260508121823 | 62 | 115 | 2.0 | 7.0 | 0.00 | 0.00 | 0.00 | 67 | 1009.1 |
| 20260508121703 | 62 | 113 | 3.0 | 7.0 | 0.00 | 0.00 | 0.00 | 66 | 1009.1 |
| 20260508121603 | 63 | 113 | 3.0 | 7.0 | 0.00 | 0.00 | 0.00 | 65 | 1009.2 |
| 20260508121503 | 63 | 115 | 3.0 | 7.0 | 0.00 | 0.00 | 0.00 | 65 | 1009.1 |
| 20260508121403 | 63 | 115 | 3.0 | 7.0 | 0.00 | 0.00 | 0.00 | 68 | 1009.0 |
| 20260508121303 | 63 | 123 | 3.0 | 7.0 | 0.00 | 0.00 | 0.00 | 68 | 1009.2 |
| 20260508121224 | 63 | 123 | 3.0 | 7.0 | 0.00 | 0.00 | 0.00 | 68 | 1009.2 |
| 20260508121103 | 63 | 136 | 3.0 | 7.0 | 0.00 | 0.00 | 0.00 | 66 | 1009.2 |
| 20260508121003 | 63 | 137 | 3.0 | 7.0 | 0.00 | 0.00 | 0.00 | 67 | 1009.1 |
| 20260508120902 | 63 | 137 | 3.0 | 7.0 | 0.00 | 0.00 | 0.00 | 65 | 1009.2 |
| 20260508120803 | 63 | 135 | 3.0 | 7.0 | 0.00 | 0.00 | 0.00 | 66 | 1009.1 |
| 20260508120703 | 63 | 142 | 3.0 | 7.0 | 0.00 | 0.00 | 0.00 | 67 | 1009.3 |
| 20260508120624 | 63 | 142 | 3.0 | 7.0 | 0.00 | 0.00 | 0.00 | 67 | 1009.3 |
| 20260508120503 | 63 | 143 | 3.0 | 7.0 | 0.00 | 0.00 | 0.00 | 64 | 1009.2 |
| 20260508120423 | 63 | 145 | 3.0 | 7.0 | 0.00 | 0.00 | 0.00 | 64 | 1009.2 |
| 20260508120303 | 64 | 158 | 3.0 | 7.0 | 0.00 | 0.00 | 0.00 | 65 | 1009.3 |
| 20260508120203 | 64 | 147 | 3.0 | 7.0 | 0.00 | 0.00 | 0.00 | 65 | 1009.2 |
| 20260508120004 | 63 | 144 | 3.0 | 7.0 | 0.00 | 0.00 | 0.00 | 68 | 1009.2 |
| 20260508115902 | 63 | 144 | 3.0 | 7.0 | 0.00 | 0.00 | 0.00 | 66 | 1009.1 |
| 20260508115802 | 63 | 148 | 3.0 | 7.0 | 0.00 | 0.00 | 0.00 | 65 | 1009.2 |
| 20260508115724 | 63 | 154 | 3.0 | 7.0 | 0.00 | 0.00 | 0.00 | 67 | 1009.1 |
| 20260508115603 | 63 | 148 | 3.0 | 7.0 | 0.00 | 0.00 | 0.00 | 67 | 1009.3 |
| 20260508115523 | 63 | 148 | 3.0 | 7.0 | 0.00 | 0.00 | 0.00 | 67 | 1009.3 |
| 20260508115402 | 63 | 151 | 3.0 | 7.0 | 0.00 | 0.00 | 0.00 | 67 | 1009.2 |
| 20260508115306 | 63 | 142 | 3.0 | 7.0 | 0.00 | 0.00 | 0.00 | 69 | 1009.3 |
| 20260508115224 | 63 | 142 | 3.0 | 7.0 | 0.00 | 0.00 | 0.00 | 69 | 1009.3 |
| 20260508115102 | 63 | 133 | 3.0 | 7.0 | 0.00 | 0.00 | 0.00 | 68 | 1009.3 |
| 20260508115002 | 63 | 126 | 3.0 | 7.0 | 0.00 | 0.00 | 0.00 | 69 | 1009.1 |
| 20260508114903 | 63 | 126 | 3.0 | 7.0 | 0.00 | 0.00 | 0.00 | 69 | 1009.1 |
| 20260508114803 | 63 | 125 | 3.0 | 8.0 | 0.00 | 0.00 | 0.00 | 69 | 1009.2 |
| 20260508114703 | 63 | 117 | 3.0 | 9.0 | 0.00 | 0.00 | 0.00 | 67 | 1009.2 |
| 20260508114603 | 63 | 117 | 4.0 | 9.0 | 0.00 | 0.00 | 0.00 | 68 | 1009.1 |
| 20260508114503 | 63 | 124 | 4.0 | 9.0 | 0.00 | 0.00 | 0.00 | 67 | 1009.2 |
| 20260508114403 | 63 | 130 | 4.0 | 10.0 | 0.00 | 0.00 | 0.00 | 66 | 1009.2 |
| 20260508114303 | 63 | 128 | 5.0 | 10.0 | 0.00 | 0.00 | 0.00 | 68 | 1009.2 |
| 20260508114203 | 63 | 128 | 5.0 | 10.0 | 0.00 | 0.00 | 0.00 | 68 | 1009.2 |
| 20260508114124 | 63 | 128 | 5.0 | 10.0 | 0.00 | 0.00 | 0.00 | 69 | 1009.3 |
| 20260508114003 | 63 | 128 | 5.0 | 10.0 | 0.00 | 0.00 | 0.00 | 71 | 1009.0 |
| 20260508113903 | 62 | 133 | 5.0 | 10.0 | 0.00 | 0.00 | 0.00 | 69 | 1009.2 |
| 20260508113803 | 62 | 135 | 5.0 | 10.0 | 0.00 | 0.00 | 0.00 | 68 | 1009.1 |
| 20260508113703 | 62 | 135 | 5.0 | 10.0 | 0.00 | 0.00 | 0.00 | 68 | 1009.1 |
| 20260508113603 | 62 | 138 | 4.0 | 10.0 | 0.00 | 0.00 | 0.00 | 69 | 1009.0 |
| 20260508113524 | 62 | 131 | 4.0 | 10.0 | 0.00 | 0.00 | 0.00 | 69 | 1009.0 |
| 20260508113402 | 62 | 124 | 4.0 | 10.0 | 0.00 | 0.00 | 0.00 | 67 | 1009.1 |
| 20260508113303 | 62 | 114 | 3.0 | 7.0 | 0.00 | 0.00 | 0.00 | 68 | 1009.0 |
| 20260508113203 | 63 | 122 | 3.0 | 8.0 | 0.00 | 0.00 | 0.00 | 68 | 1009.2 |
| 20260508113103 | 63 | 117 | 3.0 | 8.0 | 0.00 | 0.00 | 0.00 | 70 | 1009.0 |
| 20260508113003 | 63 | 117 | 3.0 | 8.0 | 0.00 | 0.00 | 0.00 | 72 | 1009.2 |
| 20260508112903 | 63 | 113 | 3.0 | 8.0 | 0.00 | 0.00 | 0.00 | 72 | 1009.0 |
| 20260508112802 | 62 | 107 | 3.0 | 8.0 | 0.00 | 0.00 | 0.00 | 73 | 1009.0 |
| 20260508112703 | 63 | 108 | 3.0 | 8.0 | 0.00 | 0.00 | 0.00 | 71 | 1009.2 |
| 20260508112603 | 63 | 110 | 3.0 | 8.0 | 0.00 | 0.00 | 0.00 | 71 | 1009.2 |
| 20260508112502 | 63 | 110 | 3.0 | 8.0 | 0.00 | 0.00 | 0.00 | 71 | 1009.2 |
| 20260508112403 | 62 | 118 | 3.0 | 8.0 | 0.00 | 0.00 | 0.00 | 72 | 1009.1 |
| 20260508112306 | 62 | 118 | 3.0 | 8.0 | 0.00 | 0.00 | 0.00 | 72 | 1009.2 |
| 20260508112203 | 63 | 117 | 4.0 | 8.0 | 0.00 | 0.00 | 0.00 | 72 | 1009.3 |
| 20260508112103 | 63 | 119 | 3.0 | 7.0 | 0.00 | 0.00 | 0.00 | 72 | 1009.2 |
| 20260508112002 | 62 | 123 | 4.0 | 7.0 | 0.00 | 0.00 | 0.00 | 73 | 1009.1 |
| 20260508111924 | 62 | 122 | 4.0 | 8.0 | 0.00 | 0.00 | 0.00 | 73 | 1009.1 |
| 20260508111803 | 62 | 123 | 4.0 | 8.0 | 0.00 | 0.00 | 0.00 | 74 | 1009.2 |
| 20260508111703 | 62 | 125 | 4.0 | 8.0 | 0.00 | 0.00 | 0.00 | 74 | 1009.3 |
| 20260508111603 | 62 | 130 | 4.0 | 8.0 | 0.00 | 0.00 | 0.00 | 73 | 1009.1 |
| 20260508111503 | 62 | 134 | 4.0 | 8.0 | 0.00 | 0.00 | 0.00 | 74 | 1009.4 |
| 20260508111403 | 61 | 134 | 4.0 | 8.0 | 0.00 | 0.00 | 0.00 | 74 | 1009.2 |
| 20260508111303 | 61 | 134 | 4.0 | 8.0 | 0.00 | 0.00 | 0.00 | 74 | 1009.2 |
| 20260508111203 | 61 | 133 | 5.0 | 8.0 | 0.00 | 0.00 | 0.00 | 73 | 1009.4 |
| 20260508111103 | 61 | 133 | 5.0 | 8.0 | 0.00 | 0.00 | 0.00 | 73 | 1009.3 |
| 20260508111003 | 61 | 134 | 5.0 | 8.0 | 0.00 | 0.00 | 0.00 | 74 | 1009.4 |
| 20260508110903 | 62 | 134 | 5.0 | 8.0 | 0.00 | 0.00 | 0.00 | 73 | 1009.4 |
| 20260508110802 | 62 | 136 | 5.0 | 8.0 | 0.00 | 0.00 | 0.00 | 73 | 1009.3 |
| 20260508110703 | 62 | 137 | 4.0 | 8.0 | 0.00 | 0.00 | 0.00 | 73 | 1009.3 |
| 20260508110603 | 62 | 137 | 4.0 | 8.0 | 0.00 | 0.00 | 0.00 | 72 | 1009.4 |
| 20260508110503 | 62 | 131 | 4.0 | 8.0 | 0.00 | 0.00 | 0.00 | 74 | 1009.4 |
| 20260508110403 | 62 | 125 | 4.0 | 8.0 | 0.00 | 0.00 | 0.00 | 75 | 1009.5 |
| 20260508110302 | 62 | 125 | 4.0 | 8.0 | 0.00 | 0.00 | 0.00 | 73 | 1009.5 |
| 20260508110224 | 62 | 125 | 4.0 | 8.0 | 0.00 | 0.00 | 0.00 | 73 | 1009.5 |
| 20260508110103 | 62 | 124 | 4.0 | 8.0 | 0.00 | 0.00 | 0.00 | 73 | 1009.5 |
| 20260508110002 | 63 | 126 | 4.0 | 8.0 | 0.00 | 0.00 | 0.00 | 73 | 1009.5 |
| 20260508105902 | 63 | 121 | 3.0 | 8.0 | 0.00 | 0.00 | 0.00 | 73 | 1009.6 |
| 20260508105803 | 63 | 122 | 3.0 | 7.0 | 0.00 | 0.00 | 0.00 | 75 | 1009.5 |
| 20260508105702 | 62 | 121 | 3.0 | 7.0 | 0.00 | 0.00 | 0.00 | 77 | 1009.5 |
| 20260508105602 | 62 | 124 | 3.0 | 7.0 | 0.00 | 0.00 | 0.00 | 77 | 1009.6 |
| 20260508105502 | 62 | 123 | 4.0 | 7.0 | 0.00 | 0.00 | 0.00 | 76 | 1009.5 |
| 20260508105403 | 62 | 123 | 4.0 | 7.0 | 0.00 | 0.00 | 0.00 | 78 | 1009.6 |
| 20260508105306 | 62 | 124 | 4.0 | 7.0 | 0.00 | 0.00 | 0.00 | 77 | 1009.5 |
| 20260508105202 | 61 | 119 | 3.0 | 6.0 | 0.00 | 0.00 | 0.00 | 78 | 1009.5 |
| 20260508105103 | 61 | 119 | 3.0 | 6.0 | 0.00 | 0.00 | 0.00 | 78 | 1009.5 |
| 20260508105003 | 61 | 119 | 3.0 | 6.0 | 0.00 | 0.00 | 0.00 | 76 | 1009.7 |
| 20260508104902 | 61 | 119 | 3.0 | 6.0 | 0.00 | 0.00 | 0.00 | 76 | 1009.7 |
| 20260508104803 | 61 | 115 | 3.0 | 6.0 | 0.00 | 0.00 | 0.00 | 77 | 1009.6 |
| 20260508104703 | 61 | 108 | 3.0 | 6.0 | 0.00 | 0.00 | 0.00 | 76 | 1009.6 |
| 20260508104603 | 61 | 111 | 4.0 | 6.0 | 0.00 | 0.00 | 0.00 | 77 | 1009.6 |
| 20260508104502 | 61 | 109 | 4.0 | 6.0 | 0.00 | 0.00 | 0.00 | 77 | 1009.5 |
| 20260508104403 | 61 | 109 | 3.0 | 6.0 | 0.00 | 0.00 | 0.00 | 77 | 1009.7 |
| 20260508104303 | 61 | 109 | 3.0 | 6.0 | 0.00 | 0.00 | 0.00 | 78 | 1009.6 |
| 20260508104203 | 61 | 108 | 3.0 | 6.0 | 0.00 | 0.00 | 0.00 | 78 | 1009.7 |
| 20260508104103 | 61 | 108 | 3.0 | 6.0 | 0.00 | 0.00 | 0.00 | 77 | 1009.6 |
| 20260508104023 | 61 | 108 | 3.0 | 6.0 | 0.00 | 0.00 | 0.00 | 77 | 1009.6 |
| 20260508103903 | 61 | 108 | 3.0 | 6.0 | 0.00 | 0.00 | 0.00 | 77 | 1009.6 |
| 20260508103803 | 61 | 107 | 3.0 | 6.0 | 0.00 | 0.00 | 0.00 | 77 | 1009.7 |
| 20260508103703 | 61 | 107 | 3.0 | 6.0 | 0.00 | 0.00 | 0.00 | 77 | 1009.7 |
| 20260508103603 | 61 | 106 | 3.0 | 6.0 | 0.00 | 0.00 | 0.00 | 78 | 1009.7 |
| 20260508103502 | 61 | 105 | 3.0 | 6.0 | 0.00 | 0.00 | 0.00 | 78 | 1009.5 |
| 20260508103423 | 61 | 104 | 3.0 | 6.0 | 0.00 | 0.00 | 0.00 | 79 | 1009.7 |
| 20260508103303 | 61 | 104 | 3.0 | 6.0 | 0.00 | 0.00 | 0.00 | 79 | 1009.5 |
| 20260508103202 | 60 | 107 | 3.0 | 7.0 | 0.00 | 0.00 | 0.00 | 78 | 1009.6 |
| 20260508103102 | 60 | 114 | 4.0 | 7.0 | 0.00 | 0.00 | 0.00 | 78 | 1009.7 |
| 20260508103003 | 60 | 113 | 4.0 | 7.0 | 0.00 | 0.00 | 0.00 | 78 | 1009.7 |
| 20260508102902 | 60 | 115 | 4.0 | 7.0 | 0.00 | 0.00 | 0.00 | 78 | 1009.6 |
| 20260508102803 | 60 | 121 | 4.0 | 7.0 | 0.00 | 0.00 | 0.00 | 77 | 1009.5 |
| 20260508102703 | 60 | 121 | 4.0 | 7.0 | 0.00 | 0.00 | 0.00 | 79 | 1009.7 |
| 20260508102603 | 60 | 122 | 4.0 | 7.0 | 0.00 | 0.00 | 0.00 | 79 | 1009.8 |
| 20260508102503 | 60 | 122 | 4.0 | 7.0 | 0.00 | 0.00 | 0.00 | 79 | 1009.8 |
| 20260508102403 | 60 | 125 | 4.0 | 8.0 | 0.00 | 0.00 | 0.00 | 78 | 1009.5 |
| 20260508102306 | 60 | 125 | 4.0 | 8.0 | 0.00 | 0.00 | 0.00 | 78 | 1009.8 |
| 20260508102224 | 60 | 125 | 4.0 | 8.0 | 0.00 | 0.00 | 0.00 | 77 | 1009.6 |
| 20260508102103 | 60 | 130 | 4.0 | 8.0 | 0.00 | 0.00 | 0.00 | 77 | 1009.6 |
| 20260508102003 | 60 | 125 | 3.0 | 8.0 | 0.00 | 0.00 | 0.00 | 77 | 1009.4 |
| 20260508101924 | 60 | 125 | 3.0 | 8.0 | 0.00 | 0.00 | 0.00 | 78 | 1009.7 |
| 20260508101803 | 60 | 124 | 3.0 | 8.0 | 0.00 | 0.00 | 0.00 | 79 | 1009.5 |
| 20260508101702 | 60 | 116 | 3.0 | 8.0 | 0.00 | 0.00 | 0.00 | 80 | 1009.6 |
| 20260508101603 | 60 | 124 | 3.0 | 8.0 | 0.00 | 0.00 | 0.00 | 79 | 1009.6 |
| 20260508101503 | 60 | 126 | 3.0 | 8.0 | 0.00 | 0.00 | 0.00 | 78 | 1009.6 |
| 20260508101403 | 60 | 118 | 3.0 | 7.0 | 0.00 | 0.00 | 0.00 | 78 | 1009.5 |
| 20260508101303 | 60 | 118 | 3.0 | 7.0 | 0.00 | 0.00 | 0.00 | 78 | 1009.5 |
| 20260508101203 | 60 | 118 | 3.0 | 7.0 | 0.00 | 0.00 | 0.00 | 79 | 1009.6 |
| 20260508101124 | 60 | 121 | 3.0 | 7.0 | 0.00 | 0.00 | 0.00 | 79 | 1009.5 |
| 20260508101003 | 60 | 115 | 3.0 | 6.0 | 0.00 | 0.00 | 0.00 | 81 | 1009.8 |
| 20260508100903 | 60 | 116 | 3.0 | 6.0 | 0.00 | 0.00 | 0.00 | 80 | 1009.6 |
| 20260508100824 | 60 | 117 | 3.0 | 6.0 | 0.00 | 0.00 | 0.00 | 80 | 1009.6 |
| 20260508100703 | 60 | 118 | 3.0 | 6.0 | 0.00 | 0.00 | 0.00 | 79 | 1009.4 |
| 20260508100603 | 60 | 120 | 3.0 | 6.0 | 0.00 | 0.00 | 0.00 | 80 | 1009.5 |
| 20260508100503 | 60 | 109 | 3.0 | 6.0 | 0.00 | 0.00 | 0.00 | 80 | 1009.5 |
| 20260508100403 | 60 | 107 | 3.0 | 6.0 | 0.00 | 0.00 | 0.00 | 79 | 1009.5 |
| 20260508100324 | 60 | 107 | 3.0 | 6.0 | 0.00 | 0.00 | 0.00 | 79 | 1009.5 |
| 20260508100202 | 60 | 103 | 3.0 | 6.0 | 0.00 | 0.00 | 0.00 | 80 | 1009.7 |
| 20260508100003 | 60 | 93 | 2.0 | 6.0 | 0.00 | 0.00 | 0.00 | 82 | 1009.5 |
| 20260508095903 | 60 | 93 | 2.0 | 6.0 | 0.00 | 0.00 | 0.00 | 82 | 1009.5 |
| 20260508095702 | 60 | 86 | 2.0 | 4.0 | 0.00 | 0.00 | 0.00 | 81 | 1009.4 |
| 20260508095603 | 60 | 86 | 2.0 | 4.0 | 0.00 | 0.00 | 0.00 | 81 | 1009.4 |
| 20260508095503 | 60 | 85 | 2.0 | 4.0 | 0.00 | 0.00 | 0.00 | 81 | 1009.4 |
| 20260508095403 | 60 | 94 | 2.0 | 6.0 | 0.00 | 0.00 | 0.00 | 82 | 1009.5 |
| 20260508095306 | 60 | 94 | 2.0 | 6.0 | 0.00 | 0.00 | 0.00 | 82 | 1009.5 |
| 20260508095224 | 60 | 95 | 2.0 | 6.0 | 0.00 | 0.00 | 0.00 | 82 | 1009.4 |
| 20260508095103 | 60 | 105 | 2.0 | 6.0 | 0.00 | 0.00 | 0.00 | 82 | 1009.6 |
| 20260508095003 | 60 | 103 | 2.0 | 6.0 | 0.00 | 0.00 | 0.00 | 82 | 1009.6 |
| 20260508094923 | 60 | 102 | 2.0 | 6.0 | 0.00 | 0.00 | 0.00 | 81 | 1009.5 |
| 20260508094803 | 59 | 100 | 2.0 | 6.0 | 0.00 | 0.00 | 0.00 | 82 | 1009.5 |
| 20260508094724 | 59 | 98 | 3.0 | 6.0 | 0.00 | 0.00 | 0.00 | 82 | 1009.3 |
| 20260508094603 | 59 | 96 | 3.0 | 6.0 | 0.00 | 0.00 | 0.00 | 82 | 1009.7 |
| 20260508094503 | 59 | 96 | 2.0 | 6.0 | 0.00 | 0.00 | 0.00 | 82 | 1009.5 |
| 20260508094403 | 59 | 97 | 2.0 | 6.0 | 0.00 | 0.00 | 0.00 | 82 | 1009.6 |
| 20260508094303 | 59 | 93 | 2.0 | 6.0 | 0.00 | 0.00 | 0.00 | 82 | 1009.5 |
| 20260508094203 | 59 | 92 | 2.0 | 6.0 | 0.00 | 0.00 | 0.00 | 82 | 1009.5 |
| 20260508094124 | 59 | 92 | 2.0 | 6.0 | 0.00 | 0.00 | 0.00 | 82 | 1009.5 |
| 20260508094003 | 59 | 82 | 2.0 | 4.0 | 0.00 | 0.00 | 0.00 | 82 | 1009.4 |
| 20260508093903 | 60 | 83 | 2.0 | 4.0 | 0.00 | 0.00 | 0.00 | 82 | 1009.4 |
| 20260508093802 | 60 | 81 | 1.0 | 4.0 | 0.00 | 0.00 | 0.00 | 82 | 1009.5 |
| 20260508093703 | 60 | 75 | 1.0 | 3.0 | 0.00 | 0.00 | 0.00 | 83 | 1009.5 |
| 20260508093603 | 60 | 75 | 1.0 | 3.0 | 0.00 | 0.00 | 0.00 | 83 | 1009.4 |
| 20260508093503 | 60 | 76 | 1.0 | 3.0 | 0.00 | 0.00 | 0.00 | 82 | 1009.4 |
| 20260508093403 | 60 | 76 | 1.0 | 3.0 | 0.00 | 0.00 | 0.00 | 83 | 1009.4 |
| 20260508093303 | 60 | 78 | 1.0 | 3.0 | 0.00 | 0.00 | 0.00 | 83 | 1009.5 |
| 20260508093203 | 60 | 71 | 1.0 | 3.0 | 0.00 | 0.00 | 0.00 | 84 | 1009.4 |
| 20260508093103 | 59 | 70 | 1.0 | 3.0 | 0.00 | 0.00 | 0.00 | 84 | 1009.6 |
| 20260508093003 | 59 | 72 | 1.0 | 3.0 | 0.00 | 0.00 | 0.00 | 84 | 1009.5 |
| 20260508092903 | 59 | 72 | 1.0 | 3.0 | 0.00 | 0.00 | 0.00 | 84 | 1009.5 |
| 20260508092803 | 59 | 72 | 1.0 | 3.0 | 0.00 | 0.00 | 0.00 | 84 | 1009.4 |
| 20260508092703 | 59 | 73 | 1.0 | 3.0 | 0.00 | 0.00 | 0.00 | 84 | 1009.6 |
| 20260508092602 | 59 | 73 | 2.0 | 3.0 | 0.00 | 0.00 | 0.00 | 84 | 1009.4 |
| 20260508092503 | 59 | 73 | 2.0 | 3.0 | 0.00 | 0.00 | 0.00 | 85 | 1009.7 |
| 20260508092424 | 59 | 72 | 2.0 | 3.0 | 0.00 | 0.00 | 0.00 | 84 | 1009.5 |
| 20260508092312 | 59 | 71 | 1.0 | 3.0 | 0.00 | 0.00 | 0.00 | 84 | 1009.5 |
| 20260508092203 | 59 | 67 | 1.0 | 3.0 | 0.00 | 0.00 | 0.00 | 83 | 1009.4 |
| 20260508092103 | 60 | 66 | 1.0 | 3.0 | 0.00 | 0.00 | 0.00 | 83 | 1009.6 |
| 20260508092003 | 60 | 66 | 1.0 | 3.0 | 0.00 | 0.00 | 0.00 | 83 | 1009.5 |
| 20260508091924 | 60 | 66 | 1.0 | 3.0 | 0.00 | 0.00 | 0.00 | 83 | 1009.5 |
| 20260508091803 | 60 | 66 | 1.0 | 3.0 | 0.00 | 0.00 | 0.00 | 82 | 1009.3 |
| 20260508091703 | 61 | 63 | 0.0 | 3.0 | 0.00 | 0.00 | 0.00 | 82 | 1009.5 |
| 20260508091603 | 61 | 56 | 0.0 | 1.0 | 0.00 | 0.00 | 0.00 | 82 | 1009.5 |
| 20260508091503 | 61 | 55 | 0.0 | 1.0 | 0.00 | 0.00 | 0.00 | 82 | 1009.4 |
| 20260508091403 | 61 | 53 | 0.0 | 1.0 | 0.00 | 0.00 | 0.00 | 83 | 1009.3 |
| 20260508091303 | 61 | 53 | 0.0 | 1.0 | 0.00 | 0.00 | 0.00 | 84 | 1009.3 |
| 20260508091203 | 60 | 53 | 0.0 | 1.0 | 0.00 | 0.00 | 0.00 | 84 | 1009.4 |
| 20260508091102 | 60 | 53 | 0.0 | 1.0 | 0.00 | 0.00 | 0.00 | 84 | 1009.4 |
| 20260508091003 | 60 | 0 | 0.0 | 0.0 | 0.00 | 0.00 | 0.00 | 84 | 1009.3 |
| 20260508090902 | 60 | 0 | 0.0 | 0.0 | 0.00 | 0.00 | 0.00 | 84 | 1009.3 |
| 20260508090824 | 60 | 53 | 0.0 | 1.0 | 0.00 | 0.00 | 0.00 | 85 | 1009.4 |
| 20260508090702 | 60 | 53 | 0.0 | 1.0 | 0.00 | 0.00 | 0.00 | 85 | 1009.4 |
| 20260508090603 | 60 | 53 | 0.0 | 1.0 | 0.00 | 0.00 | 0.00 | 86 | 1009.2 |
| 20260508090524 | 59 | 53 | 0.0 | 1.0 | 0.00 | 0.00 | 0.00 | 86 | 1009.4 |
| 20260508090424 | 59 | 53 | 0.0 | 1.0 | 0.00 | 0.00 | 0.00 | 86 | 1009.4 |
| 20260508090302 | 59 | 53 | 0.0 | 1.0 | 0.00 | 0.00 | 0.00 | 86 | 1009.3 |
| 20260508090202 | 59 | 53 | 0.0 | 1.0 | 0.00 | 0.00 | 0.00 | 86 | 1009.3 |
| 20260508090003 | 58 | 53 | 0.0 | 1.0 | 0.00 | 0.00 | 0.00 | 86 | 1009.5 |
| 20260508085924 | 58 | 53 | 0.0 | 1.0 | 0.00 | 0.00 | 0.00 | 86 | 1009.5 |
| 20260508085803 | 58 | 53 | 0.0 | 1.0 | 0.00 | 0.00 | 0.00 | 86 | 1009.4 |
| 20260508085703 | 58 | 53 | 0.0 | 1.0 | 0.00 | 0.00 | 0.00 | 86 | 1009.4 |
| 20260508085603 | 58 | 53 | 0.0 | 1.0 | 0.00 | 0.00 | 0.00 | 86 | 1009.4 |
| 20260508085503 | 58 | 53 | 0.0 | 2.0 | 0.00 | 0.00 | 0.00 | 87 | 1009.5 |
| 20260508085402 | 58 | 54 | 0.0 | 2.0 | 0.00 | 0.00 | 0.00 | 87 | 1009.5 |
| 20260508085306 | 58 | 54 | 0.0 | 2.0 | 0.00 | 0.00 | 0.00 | 87 | 1009.5 |
| 20260508085203 | 58 | 53 | 0.0 | 2.0 | 0.00 | 0.00 | 0.00 | 87 | 1009.4 |
| 20260508085124 | 58 | 53 | 1.0 | 2.0 | 0.00 | 0.00 | 0.00 | 87 | 1009.5 |
| 20260508085003 | 57 | 52 | 1.0 | 2.0 | 0.00 | 0.00 | 0.00 | 87 | 1009.6 |
| 20260508084924 | 57 | 52 | 1.0 | 2.0 | 0.00 | 0.00 | 0.00 | 87 | 1009.5 |
| 20260508084803 | 57 | 52 | 1.0 | 2.0 | 0.00 | 0.00 | 0.00 | 87 | 1009.5 |
| 20260508084724 | 57 | 52 | 1.0 | 2.0 | 0.00 | 0.00 | 0.00 | 87 | 1009.5 |
| 20260508084624 | 57 | 51 | 1.0 | 2.0 | 0.00 | 0.00 | 0.00 | 87 | 1009.7 |
| 20260508084503 | 57 | 51 | 1.0 | 2.0 | 0.00 | 0.00 | 0.00 | 88 | 1009.5 |
| 20260508084403 | 57 | 50 | 1.0 | 2.0 | 0.00 | 0.00 | 0.00 | 88 | 1009.5 |
| 20260508084303 | 57 | 50 | 1.0 | 2.0 | 0.00 | 0.00 | 0.00 | 88 | 1009.3 |
| 20260508084203 | 57 | 50 | 1.0 | 2.0 | 0.00 | 0.00 | 0.00 | 87 | 1009.2 |
| 20260508084103 | 57 | 50 | 1.0 | 2.0 | 0.00 | 0.00 | 0.00 | 87 | 1009.2 |
| 20260508084003 | 57 | 50 | 0.0 | 2.0 | 0.00 | 0.00 | 0.00 | 87 | 1009.3 |
| 20260508083903 | 57 | 50 | 0.0 | 2.0 | 0.00 | 0.00 | 0.00 | 88 | 1009.4 |
| 20260508083803 | 57 | 50 | 0.0 | 2.0 | 0.00 | 0.00 | 0.00 | 88 | 1009.4 |
| 20260508083702 | 57 | 50 | 0.0 | 2.0 | 0.00 | 0.00 | 0.00 | 88 | 1009.2 |
| 20260508083624 | 57 | 50 | 0.0 | 1.0 | 0.00 | 0.00 | 0.00 | 88 | 1009.1 |
| 20260508083502 | 57 | 50 | 0.0 | 1.0 | 0.00 | 0.00 | 0.00 | 88 | 1009.1 |
| 20260508083403 | 57 | 49 | 0.0 | 1.0 | 0.00 | 0.00 | 0.00 | 89 | 1009.2 |
| 20260508083303 | 57 | 50 | 0.0 | 1.0 | 0.00 | 0.00 | 0.00 | 89 | 1009.3 |
| 20260508083224 | 57 | 53 | 0.0 | 1.0 | 0.00 | 0.00 | 0.00 | 89 | 1008.9 |
| 20260508083103 | 57 | 53 | 0.0 | 1.0 | 0.00 | 0.00 | 0.00 | 89 | 1009.1 |
| 20260508083024 | 57 | 54 | 0.0 | 2.0 | 0.00 | 0.00 | 0.00 | 89 | 1009.2 |
| 20260508082903 | 57 | 54 | 0.0 | 2.0 | 0.00 | 0.00 | 0.00 | 89 | 1009.1 |
| 20260508082803 | 57 | 53 | 1.0 | 2.0 | 0.00 | 0.00 | 0.00 | 89 | 1009.1 |
| 20260508082703 | 56 | 53 | 1.0 | 2.0 | 0.00 | 0.00 | 0.00 | 89 | 1009.1 |
| 20260508082603 | 56 | 53 | 1.0 | 2.0 | 0.00 | 0.00 | 0.00 | 89 | 1009.3 |
| 20260508082503 | 56 | 54 | 1.0 | 2.0 | 0.00 | 0.00 | 0.00 | 90 | 1009.2 |
| 20260508082424 | 56 | 54 | 1.0 | 2.0 | 0.00 | 0.00 | 0.00 | 90 | 1009.2 |
| 20260508082306 | 56 | 59 | 1.0 | 3.0 | 0.00 | 0.00 | 0.00 | 90 | 1009.2 |
| 20260508082203 | 56 | 58 | 1.0 | 3.0 | 0.00 | 0.00 | 0.00 | 90 | 1009.3 |
| 20260508082103 | 56 | 58 | 1.0 | 3.0 | 0.00 | 0.00 | 0.00 | 90 | 1009.3 |
| 20260508082003 | 56 | 58 | 1.0 | 3.0 | 0.00 | 0.00 | 0.00 | 90 | 1009.4 |
| 20260508081903 | 56 | 60 | 1.0 | 3.0 | 0.00 | 0.00 | 0.00 | 89 | 1009.3 |
| 20260508081803 | 56 | 61 | 1.0 | 4.0 | 0.00 | 0.00 | 0.00 | 90 | 1009.4 |
| 20260508081703 | 56 | 60 | 1.0 | 4.0 | 0.00 | 0.00 | 0.00 | 90 | 1009.3 |
| 20260508081603 | 56 | 63 | 1.0 | 4.0 | 0.00 | 0.00 | 0.00 | 90 | 1009.3 |
| 20260508081503 | 56 | 64 | 1.0 | 4.0 | 0.00 | 0.00 | 0.00 | 90 | 1009.4 |
| 20260508081403 | 56 | 68 | 2.0 | 4.0 | 0.00 | 0.00 | 0.00 | 90 | 1009.3 |
| 20260508081303 | 56 | 68 | 2.0 | 4.0 | 0.00 | 0.00 | 0.00 | 90 | 1009.3 |
| 20260508081203 | 56 | 74 | 2.0 | 4.0 | 0.00 | 0.00 | 0.00 | 90 | 1009.5 |
| 20260508081103 | 56 | 73 | 2.0 | 4.0 | 0.00 | 0.00 | 0.00 | 90 | 1009.4 |
| 20260508081003 | 55 | 73 | 2.0 | 4.0 | 0.00 | 0.00 | 0.00 | 90 | 1009.5 |
| 20260508080902 | 55 | 73 | 2.0 | 4.0 | 0.00 | 0.00 | 0.00 | 90 | 1009.5 |
| 20260508080803 | 56 | 73 | 2.0 | 4.0 | 0.00 | 0.00 | 0.00 | 90 | 1009.6 |
| 20260508080703 | 55 | 72 | 2.0 | 3.0 | 0.00 | 0.00 | 0.00 | 90 | 1009.5 |
| 20260508080603 | 55 | 71 | 2.0 | 3.0 | 0.00 | 0.00 | 0.00 | 90 | 1009.6 |
| 20260508080503 | 55 | 71 | 2.0 | 3.0 | 0.00 | 0.00 | 0.00 | 90 | 1009.6 |
| 20260508080403 | 55 | 70 | 2.0 | 3.0 | 0.00 | 0.00 | 0.00 | 90 | 1009.4 |
| 20260508080303 | 55 | 67 | 2.0 | 3.0 | 0.00 | 0.00 | 0.00 | 90 | 1009.2 |
| 20260508080203 | 55 | 67 | 2.0 | 3.0 | 0.00 | 0.00 | 0.00 | 90 | 1009.5 |
| 20260508080124 | 55 | 59 | 2.0 | 3.0 | 0.00 | 0.00 | 0.00 | 90 | 1009.4 |
| 20260508080024 | 55 | 59 | 2.0 | 3.0 | 0.00 | 0.00 | 0.00 | 90 | 1009.4 |
| 20260508075903 | 55 | 58 | 2.0 | 3.0 | 0.00 | 0.00 | 0.00 | 90 | 1009.3 |
| 20260508075803 | 55 | 57 | 1.0 | 3.0 | 0.00 | 0.00 | 0.00 | 90 | 1009.4 |
| 20260508075724 | 55 | 57 | 1.0 | 3.0 | 0.00 | 0.00 | 0.00 | 90 | 1009.4 |
| 20260508075603 | 55 | 57 | 1.0 | 3.0 | 0.00 | 0.00 | 0.00 | 90 | 1009.2 |
| 20260508075503 | 55 | 68 | 1.0 | 4.0 | 0.00 | 0.00 | 0.00 | 90 | 1009.2 |
| 20260508075424 | 55 | 74 | 1.0 | 4.0 | 0.00 | 0.00 | 0.00 | 90 | 1009.1 |
| 20260508075308 | 55 | 73 | 1.0 | 4.0 | 0.00 | 0.00 | 0.00 | 90 | 1009.1 |
| 20260508075203 | 55 | 73 | 1.0 | 4.0 | 0.00 | 0.00 | 0.00 | 90 | 1009.1 |
| 20260508075103 | 55 | 74 | 1.0 | 4.0 | 0.00 | 0.00 | 0.00 | 90 | 1009.2 |
| 20260508075003 | 55 | 73 | 1.0 | 4.0 | 0.00 | 0.00 | 0.00 | 90 | 1009.0 |
| 20260508074903 | 55 | 75 | 1.0 | 4.0 | 0.00 | 0.00 | 0.00 | 90 | 1009.2 |
| 20260508074803 | 55 | 76 | 1.0 | 4.0 | 0.00 | 0.00 | 0.00 | 90 | 1009.1 |
| 20260508074703 | 55 | 83 | 1.0 | 4.0 | 0.00 | 0.00 | 0.00 | 90 | 1009.1 |
| 20260508074603 | 55 | 78 | 2.0 | 4.0 | 0.00 | 0.00 | 0.00 | 91 | 1009.3 |
| 20260508074503 | 55 | 74 | 2.0 | 4.0 | 0.00 | 0.00 | 0.00 | 91 | 1009.1 |
| 20260508074403 | 55 | 67 | 1.0 | 4.0 | 0.00 | 0.00 | 0.00 | 91 | 1009.2 |
| 20260508074303 | 55 | 75 | 2.0 | 6.0 | 0.00 | 0.00 | 0.00 | 91 | 1009.1 |
| 20260508074203 | 55 | 78 | 2.0 | 6.0 | 0.00 | 0.00 | 0.00 | 91 | 1009.4 |
| 20260508074103 | 55 | 78 | 2.0 | 6.0 | 0.00 | 0.00 | 0.00 | 91 | 1009.0 |
| 20260508074003 | 55 | 77 | 2.0 | 6.0 | 0.00 | 0.00 | 0.00 | 91 | 1009.2 |
| 20260508073903 | 55 | 77 | 2.0 | 6.0 | 0.00 | 0.00 | 0.00 | 91 | 1009.2 |
| 20260508073824 | 55 | 77 | 2.0 | 6.0 | 0.00 | 0.00 | 0.00 | 91 | 1009.2 |
| 20260508073724 | 55 | 82 | 2.0 | 6.0 | 0.00 | 0.00 | 0.00 | 91 | 1009.3 |
| 20260508073603 | 55 | 77 | 2.0 | 6.0 | 0.00 | 0.00 | 0.00 | 91 | 1009.2 |
| 20260508073503 | 55 | 81 | 2.0 | 6.0 | 0.00 | 0.00 | 0.00 | 91 | 1009.4 |
| 20260508073424 | 55 | 89 | 2.0 | 7.0 | 0.00 | 0.00 | 0.00 | 91 | 1009.4 |
| 20260508073303 | 55 | 87 | 2.0 | 7.0 | 0.00 | 0.00 | 0.00 | 91 | 1009.3 |
| 20260508073203 | 55 | 81 | 2.0 | 7.0 | 0.00 | 0.00 | 0.00 | 91 | 1009.4 |
| 20260508073103 | 55 | 79 | 2.0 | 7.0 | 0.00 | 0.00 | 0.00 | 91 | 1009.3 |
| 20260508073003 | 55 | 78 | 2.0 | 7.0 | 0.00 | 0.00 | 0.00 | 91 | 1009.4 |
| 20260508072903 | 55 | 82 | 2.0 | 7.0 | 0.00 | 0.00 | 0.00 | 91 | 1009.3 |
| 20260508072803 | 55 | 77 | 2.0 | 7.0 | 0.00 | 0.00 | 0.00 | 91 | 1009.4 |
| 20260508072703 | 55 | 74 | 2.0 | 7.0 | 0.00 | 0.00 | 0.00 | 92 | 1009.3 |
| 20260508072603 | 55 | 86 | 2.0 | 7.0 | 0.00 | 0.00 | 0.00 | 92 | 1009.3 |
| 20260508072524 | 55 | 86 | 2.0 | 7.0 | 0.00 | 0.00 | 0.00 | 92 | 1009.3 |
| 20260508072403 | 55 | 86 | 3.0 | 7.0 | 0.00 | 0.00 | 0.00 | 92 | 1009.3 |
| 20260508072307 | 55 | 76 | 2.0 | 6.0 | 0.00 | 0.00 | 0.00 | 92 | 1009.4 |
| 20260508072224 | 55 | 78 | 2.0 | 6.0 | 0.00 | 0.00 | 0.00 | 92 | 1009.4 |
| 20260508072103 | 55 | 77 | 2.0 | 6.0 | 0.00 | 0.00 | 0.00 | 92 | 1009.2 |
| 20260508072003 | 55 | 78 | 2.0 | 6.0 | 0.00 | 0.00 | 0.00 | 92 | 1009.5 |
| 20260508071903 | 55 | 84 | 2.0 | 6.0 | 0.00 | 0.00 | 0.00 | 92 | 1009.2 |
| 20260508071824 | 54 | 81 | 2.0 | 6.0 | 0.00 | 0.00 | 0.00 | 92 | 1009.3 |
| 20260508071724 | 54 | 79 | 2.0 | 6.0 | 0.00 | 0.00 | 0.00 | 92 | 1009.4 |
| 20260508071603 | 54 | 83 | 2.0 | 6.0 | 0.00 | 0.00 | 0.00 | 92 | 1009.4 |
| 20260508071503 | 54 | 72 | 2.0 | 6.0 | 0.00 | 0.00 | 0.00 | 92 | 1009.5 |
| 20260508071403 | 54 | 73 | 2.0 | 6.0 | 0.00 | 0.00 | 0.00 | 92 | 1009.1 |
| 20260508071324 | 54 | 73 | 2.0 | 6.0 | 0.00 | 0.00 | 0.00 | 92 | 1009.1 |
| 20260508071203 | 54 | 74 | 3.0 | 7.0 | 0.00 | 0.00 | 0.00 | 92 | 1009.3 |
| 20260508071103 | 54 | 76 | 3.0 | 7.0 | 0.00 | 0.00 | 0.00 | 92 | 1009.1 |
| 20260508071003 | 54 | 84 | 3.0 | 7.0 | 0.00 | 0.00 | 0.00 | 92 | 1009.3 |
| 20260508070903 | 54 | 87 | 3.0 | 7.0 | 0.00 | 0.00 | 0.00 | 92 | 1009.3 |
| 20260508070803 | 54 | 88 | 4.0 | 7.0 | 0.00 | 0.00 | 0.00 | 93 | 1009.3 |
| 20260508070703 | 54 | 90 | 4.0 | 7.0 | 0.00 | 0.00 | 0.00 | 93 | 1009.3 |
| 20260508070603 | 54 | 96 | 4.0 | 7.0 | 0.00 | 0.00 | 0.00 | 93 | 1009.2 |
| 20260508070503 | 54 | 92 | 3.0 | 7.0 | 0.00 | 0.00 | 0.00 | 93 | 1009.3 |
| 20260508070403 | 54 | 93 | 3.0 | 7.0 | 0.00 | 0.00 | 0.00 | 93 | 1009.3 |
| 20260508070303 | 54 | 94 | 3.0 | 7.0 | 0.00 | 0.00 | 0.00 | 93 | 1009.2 |
| 20260508070203 | 54 | 93 | 3.0 | 7.0 | 0.00 | 0.00 | 0.00 | 93 | 1009.4 |
| 20260508070003 | 54 | 90 | 3.0 | 7.0 | 0.00 | 0.00 | 0.00 | 93 | 1009.1 |
| 20260508065924 | 54 | 86 | 3.0 | 7.0 | 0.00 | 0.00 | 0.00 | 93 | 1009.1 |
| 20260508065803 | 54 | 79 | 2.0 | 4.0 | 0.00 | 0.00 | 0.00 | 93 | 1009.0 |
| 20260508065724 | 53 | 72 | 2.0 | 3.0 | 0.00 | 0.00 | 0.00 | 93 | 1008.9 |
| 20260508065624 | 53 | 72 | 2.0 | 4.0 | 0.00 | 0.00 | 0.00 | 93 | 1009.1 |
| 20260508065524 | 53 | 65 | 2.0 | 4.0 | 0.00 | 0.00 | 0.00 | 93 | 1009.1 |
| 20260508065403 | 53 | 65 | 2.0 | 4.0 | 0.00 | 0.00 | 0.00 | 93 | 1009.1 |
| 20260508065306 | 53 | 69 | 2.0 | 6.0 | 0.00 | 0.00 | 0.00 | 93 | 1009.0 |
| 20260508065203 | 53 | 68 | 2.0 | 6.0 | 0.00 | 0.00 | 0.00 | 93 | 1009.1 |
| 20260508065103 | 53 | 69 | 2.0 | 6.0 | 0.00 | 0.00 | 0.00 | 93 | 1009.1 |
| 20260508065003 | 53 | 71 | 2.0 | 6.0 | 0.00 | 0.00 | 0.00 | 93 | 1009.0 |
| 20260508064903 | 53 | 71 | 2.0 | 6.0 | 0.00 | 0.00 | 0.00 | 93 | 1009.0 |
| 20260508064803 | 53 | 66 | 2.0 | 6.0 | 0.00 | 0.00 | 0.00 | 93 | 1009.0 |
| 20260508064703 | 53 | 68 | 2.0 | 6.0 | 0.00 | 0.00 | 0.00 | 93 | 1009.2 |
| 20260508064603 | 53 | 67 | 2.0 | 6.0 | 0.00 | 0.00 | 0.00 | 93 | 1009.2 |
| 20260508064524 | 53 | 67 | 2.0 | 6.0 | 0.00 | 0.00 | 0.00 | 93 | 1009.0 |
| 20260508064403 | 53 | 68 | 2.0 | 6.0 | 0.00 | 0.00 | 0.00 | 93 | 1009.0 |
| 20260508064303 | 53 | 68 | 2.0 | 6.0 | 0.00 | 0.00 | 0.00 | 93 | 1008.9 |
| 20260508064203 | 53 | 63 | 2.0 | 3.0 | 0.00 | 0.00 | 0.00 | 93 | 1009.0 |
| 20260508064103 | 53 | 65 | 2.0 | 3.0 | 0.00 | 0.00 | 0.00 | 93 | 1009.0 |
| 20260508064003 | 53 | 68 | 2.0 | 3.0 | 0.00 | 0.00 | 0.00 | 93 | 1009.0 |
| 20260508063903 | 53 | 71 | 2.0 | 6.0 | 0.00 | 0.00 | 0.00 | 93 | 1008.9 |
| 20260508063803 | 53 | 69 | 2.0 | 6.0 | 0.00 | 0.00 | 0.00 | 93 | 1009.0 |
| 20260508063703 | 53 | 69 | 2.0 | 6.0 | 0.00 | 0.00 | 0.00 | 93 | 1009.0 |
| 20260508063603 | 53 | 76 | 2.0 | 6.0 | 0.00 | 0.00 | 0.00 | 93 | 1009.0 |
| 20260508063503 | 53 | 83 | 2.0 | 6.0 | 0.00 | 0.00 | 0.00 | 93 | 1008.9 |
| 20260508063403 | 53 | 80 | 3.0 | 6.0 | 0.00 | 0.00 | 0.00 | 93 | 1008.9 |
| 20260508063303 | 53 | 81 | 3.0 | 6.0 | 0.00 | 0.00 | 0.00 | 93 | 1009.0 |
| 20260508063203 | 53 | 83 | 3.0 | 6.0 | 0.00 | 0.00 | 0.00 | 93 | 1008.9 |
| 20260508063103 | 53 | 83 | 3.0 | 6.0 | 0.00 | 0.00 | 0.00 | 93 | 1008.7 |
| 20260508063003 | 53 | 84 | 3.0 | 6.0 | 0.00 | 0.00 | 0.00 | 93 | 1008.7 |
| 20260508062903 | 53 | 87 | 3.0 | 6.0 | 0.00 | 0.00 | 0.00 | 93 | 1008.6 |
| 20260508062803 | 53 | 85 | 3.0 | 6.0 | 0.00 | 0.00 | 0.00 | 93 | 1008.7 |
| 20260508062703 | 53 | 90 | 2.0 | 6.0 | 0.00 | 0.00 | 0.00 | 93 | 1008.8 |
| 20260508062624 | 53 | 90 | 2.0 | 6.0 | 0.00 | 0.00 | 0.00 | 93 | 1008.8 |
| 20260508062503 | 53 | 82 | 2.0 | 6.0 | 0.00 | 0.00 | 0.00 | 93 | 1008.7 |
| 20260508062403 | 53 | 82 | 2.0 | 6.0 | 0.00 | 0.00 | 0.00 | 93 | 1008.7 |
| 20260508062306 | 53 | 85 | 2.0 | 4.0 | 0.00 | 0.00 | 0.00 | 93 | 1008.6 |
| 20260508062203 | 53 | 87 | 2.0 | 4.0 | 0.00 | 0.00 | 0.00 | 93 | 1008.7 |
| 20260508062103 | 53 | 88 | 2.0 | 4.0 | 0.00 | 0.00 | 0.00 | 93 | 1008.5 |
| 20260508062003 | 53 | 84 | 2.0 | 4.0 | 0.00 | 0.00 | 0.00 | 93 | 1008.6 |
| 20260508061903 | 53 | 80 | 2.0 | 4.0 | 0.00 | 0.00 | 0.00 | 93 | 1008.7 |
| 20260508061803 | 53 | 75 | 2.0 | 3.0 | 0.00 | 0.00 | 0.00 | 93 | 1008.5 |
| 20260508061703 | 53 | 73 | 2.0 | 3.0 | 0.00 | 0.00 | 0.00 | 93 | 1008.6 |
| 20260508061603 | 53 | 73 | 2.0 | 3.0 | 0.00 | 0.00 | 0.00 | 93 | 1008.6 |
| 20260508061524 | 53 | 73 | 2.0 | 3.0 | 0.00 | 0.00 | 0.00 | 93 | 1008.6 |
| 20260508061424 | 53 | 68 | 2.0 | 3.0 | 0.00 | 0.00 | 0.00 | 93 | 1008.6 |
| 20260508061303 | 53 | 61 | 1.0 | 3.0 | 0.00 | 0.00 | 0.00 | 93 | 1008.6 |
| 20260508061203 | 53 | 61 | 1.0 | 3.0 | 0.00 | 0.00 | 0.00 | 93 | 1008.6 |
| 20260508061103 | 53 | 58 | 1.0 | 3.0 | 0.00 | 0.00 | 0.00 | 93 | 1008.5 |
| 20260508061003 | 53 | 57 | 1.0 | 3.0 | 0.00 | 0.00 | 0.00 | 93 | 1008.5 |
| 20260508060924 | 53 | 58 | 1.0 | 3.0 | 0.00 | 0.00 | 0.00 | 93 | 1008.5 |
| 20260508060803 | 53 | 60 | 1.0 | 3.0 | 0.00 | 0.00 | 0.00 | 93 | 1008.6 |
| 20260508060703 | 53 | 53 | 1.0 | 3.0 | 0.00 | 0.00 | 0.00 | 93 | 1008.5 |
| 20260508060603 | 53 | 56 | 1.0 | 3.0 | 0.00 | 0.00 | 0.00 | 93 | 1008.6 |
| 20260508060503 | 53 | 51 | 1.0 | 2.0 | 0.00 | 0.00 | 0.00 | 92 | 1008.3 |
| 20260508060403 | 53 | 52 | 1.0 | 2.0 | 0.00 | 0.00 | 0.00 | 92 | 1008.3 |
| 20260508060324 | 53 | 52 | 1.0 | 2.0 | 0.00 | 0.00 | 0.00 | 92 | 1008.3 |
| 20260508060203 | 53 | 72 | 1.0 | 4.0 | 0.00 | 0.00 | 0.00 | 92 | 1008.4 |
| 20260508060024 | 53 | 69 | 1.0 | 4.0 | 0.00 | 0.00 | 0.00 | 92 | 1008.4 |
| 20260508055903 | 53 | 69 | 1.0 | 4.0 | 0.00 | 0.00 | 0.00 | 92 | 1008.3 |
| 20260508055803 | 53 | 69 | 1.0 | 4.0 | 0.00 | 0.00 | 0.00 | 92 | 1008.3 |
| 20260508055703 | 53 | 71 | 1.0 | 4.0 | 0.00 | 0.00 | 0.00 | 92 | 1008.3 |
| 20260508055603 | 53 | 68 | 2.0 | 4.0 | 0.00 | 0.00 | 0.00 | 92 | 1008.4 |
| 20260508055504 | 53 | 67 | 2.0 | 4.0 | 0.00 | 0.00 | 0.00 | 92 | 1008.5 |
| 20260508055403 | 53 | 74 | 2.0 | 4.0 | 0.00 | 0.00 | 0.00 | 92 | 1008.4 |
| 20260508055324 | 53 | 72 | 2.0 | 4.0 | 0.00 | 0.00 | 0.00 | 92 | 1008.5 |
| 20260508055224 | 53 | 72 | 2.0 | 4.0 | 0.00 | 0.00 | 0.00 | 92 | 1008.5 |
| 20260508055103 | 53 | 67 | 2.0 | 4.0 | 0.00 | 0.00 | 0.00 | 92 | 1008.4 |
| 20260508055003 | 53 | 69 | 2.0 | 4.0 | 0.00 | 0.00 | 0.00 | 92 | 1008.4 |
| 20260508054903 | 53 | 69 | 2.0 | 4.0 | 0.00 | 0.00 | 0.00 | 92 | 1008.4 |
| 20260508054824 | 53 | 72 | 2.0 | 4.0 | 0.00 | 0.00 | 0.00 | 92 | 1008.6 |
| 20260508054703 | 53 | 79 | 3.0 | 6.0 | 0.00 | 0.00 | 0.00 | 92 | 1008.4 |
| 20260508054603 | 53 | 84 | 3.0 | 6.0 | 0.00 | 0.00 | 0.00 | 92 | 1008.3 |
| 20260508054503 | 53 | 84 | 3.0 | 6.0 | 0.00 | 0.00 | 0.00 | 92 | 1008.2 |
| 20260508054424 | 53 | 88 | 3.0 | 6.0 | 0.00 | 0.00 | 0.00 | 93 | 1008.3 |
| 20260508054303 | 53 | 83 | 3.0 | 6.0 | 0.00 | 0.00 | 0.00 | 93 | 1008.4 |
| 20260508054203 | 53 | 83 | 2.0 | 6.0 | 0.00 | 0.00 | 0.00 | 93 | 1008.5 |
| 20260508054103 | 53 | 88 | 3.0 | 6.0 | 0.00 | 0.00 | 0.00 | 93 | 1008.3 |
| 20260508054024 | 53 | 88 | 3.0 | 6.0 | 0.00 | 0.00 | 0.00 | 93 | 1008.3 |
| 20260508053903 | 53 | 87 | 2.0 | 6.0 | 0.00 | 0.00 | 0.00 | 93 | 1008.3 |
| 20260508053824 | 53 | 87 | 2.0 | 6.0 | 0.00 | 0.00 | 0.00 | 93 | 1008.3 |
| 20260508053704 | 53 | 85 | 2.0 | 6.0 | 0.00 | 0.00 | 0.00 | 93 | 1008.3 |
| 20260508053603 | 53 | 81 | 2.0 | 4.0 | 0.00 | 0.00 | 0.00 | 93 | 1008.3 |
| 20260508053503 | 53 | 73 | 2.0 | 4.0 | 0.00 | 0.00 | 0.00 | 93 | 1008.4 |
| 20260508053403 | 53 | 75 | 2.0 | 4.0 | 0.00 | 0.00 | 0.00 | 93 | 1008.4 |
| 20260508053303 | 53 | 70 | 2.0 | 4.0 | 0.00 | 0.00 | 0.00 | 93 | 1008.3 |
| 20260508053203 | 53 | 72 | 2.0 | 4.0 | 0.00 | 0.00 | 0.00 | 93 | 1008.3 |
| 20260508053103 | 53 | 84 | 2.0 | 6.0 | 0.00 | 0.00 | 0.00 | 93 | 1008.2 |
| 20260508053024 | 53 | 79 | 2.0 | 6.0 | 0.00 | 0.00 | 0.00 | 93 | 1008.4 |
| 20260508052903 | 53 | 76 | 2.0 | 6.0 | 0.00 | 0.00 | 0.00 | 93 | 1008.3 |
| 20260508052803 | 53 | 76 | 2.0 | 6.0 | 0.00 | 0.00 | 0.00 | 93 | 1008.3 |
| 20260508052703 | 53 | 75 | 2.0 | 6.0 | 0.00 | 0.00 | 0.00 | 93 | 1008.3 |
| 20260508052624 | 53 | 75 | 2.0 | 6.0 | 0.00 | 0.00 | 0.00 | 93 | 1008.3 |
| 20260508052503 | 53 | 76 | 2.0 | 6.0 | 0.00 | 0.00 | 0.00 | 93 | 1008.3 |
| 20260508052403 | 53 | 87 | 2.0 | 6.0 | 0.00 | 0.00 | 0.00 | 93 | 1008.4 |
| 20260508052306 | 53 | 89 | 2.0 | 6.0 | 0.00 | 0.00 | 0.00 | 93 | 1008.5 |
| 20260508052203 | 53 | 94 | 3.0 | 6.0 | 0.00 | 0.00 | 0.00 | 93 | 1008.4 |
| 20260508052103 | 53 | 94 | 3.0 | 6.0 | 0.00 | 0.00 | 0.00 | 93 | 1008.4 |
| 20260508052024 | 53 | 81 | 2.0 | 4.0 | 0.00 | 0.00 | 0.00 | 93 | 1008.3 |
| 20260508051903 | 53 | 84 | 3.0 | 6.0 | 0.00 | 0.00 | 0.00 | 93 | 1008.3 |
| 20260508051803 | 53 | 82 | 3.0 | 6.0 | 0.00 | 0.00 | 0.00 | 93 | 1008.3 |
| 20260508051703 | 53 | 82 | 3.0 | 6.0 | 0.00 | 0.00 | 0.00 | 93 | 1008.4 |
| 20260508051624 | 53 | 82 | 3.0 | 6.0 | 0.00 | 0.00 | 0.00 | 93 | 1008.4 |
| 20260508051503 | 53 | 85 | 3.0 | 6.0 | 0.00 | 0.00 | 0.00 | 94 | 1008.5 |
| 20260508051403 | 53 | 81 | 3.0 | 6.0 | 0.00 | 0.00 | 0.00 | 93 | 1008.3 |
| 20260508051303 | 53 | 81 | 3.0 | 6.0 | 0.00 | 0.00 | 0.00 | 93 | 1008.3 |
| 20260508051203 | 53 | 85 | 3.0 | 6.0 | 0.00 | 0.00 | 0.00 | 94 | 1008.3 |
| 20260508051103 | 53 | 85 | 3.0 | 6.0 | 0.00 | 0.00 | 0.00 | 94 | 1008.4 |
| 20260508051003 | 53 | 87 | 3.0 | 6.0 | 0.00 | 0.00 | 0.00 | 94 | 1008.6 |
| 20260508050903 | 53 | 91 | 3.0 | 6.0 | 0.00 | 0.00 | 0.00 | 94 | 1008.5 |
| 20260508050803 | 53 | 90 | 3.0 | 4.0 | 0.00 | 0.00 | 0.00 | 94 | 1008.4 |
| 20260508050703 | 53 | 92 | 3.0 | 4.0 | 0.00 | 0.00 | 0.00 | 94 | 1008.7 |
| 20260508050624 | 53 | 90 | 3.0 | 6.0 | 0.00 | 0.00 | 0.00 | 94 | 1008.6 |
| 20260508050524 | 53 | 88 | 3.0 | 6.0 | 0.00 | 0.00 | 0.00 | 94 | 1008.4 |
| 20260508050403 | 52 | 88 | 3.0 | 6.0 | 0.00 | 0.00 | 0.00 | 94 | 1008.4 |
| 20260508050324 | 52 | 88 | 3.0 | 6.0 | 0.00 | 0.00 | 0.00 | 94 | 1008.4 |
| 20260508050203 | 52 | 83 | 2.0 | 6.0 | 0.00 | 0.00 | 0.00 | 94 | 1008.6 |
| 20260508050103 | 52 | 83 | 2.0 | 6.0 | 0.00 | 0.00 | 0.00 | 94 | 1008.6 |
| 20260508050024 | 52 | 81 | 2.0 | 6.0 | 0.00 | 0.00 | 0.00 | 94 | 1008.5 |
| 20260508045903 | 52 | 76 | 2.0 | 6.0 | 0.00 | 0.00 | 0.00 | 94 | 1008.5 |
| 20260508045803 | 52 | 75 | 2.0 | 6.0 | 0.00 | 0.00 | 0.00 | 94 | 1008.5 |
| 20260508045703 | 52 | 76 | 2.0 | 6.0 | 0.00 | 0.00 | 0.00 | 94 | 1008.6 |
| 20260508045603 | 52 | 79 | 1.0 | 6.0 | 0.00 | 0.00 | 0.00 | 94 | 1008.6 |
| 20260508045503 | 52 | 84 | 1.0 | 4.0 | 0.00 | 0.00 | 0.00 | 94 | 1008.6 |
| 20260508045403 | 52 | 77 | 1.0 | 3.0 | 0.00 | 0.00 | 0.00 | 94 | 1008.6 |
| 20260508045324 | 52 | 75 | 1.0 | 3.0 | 0.00 | 0.00 | 0.00 | 94 | 1008.5 |
| 20260508045203 | 52 | 64 | 1.0 | 2.0 | 0.00 | 0.00 | 0.00 | 94 | 1008.6 |
| 20260508045103 | 52 | 64 | 1.0 | 2.0 | 0.00 | 0.00 | 0.00 | 94 | 1008.5 |
| 20260508045003 | 52 | 64 | 1.0 | 2.0 | 0.00 | 0.00 | 0.00 | 94 | 1008.4 |
| 20260508044903 | 52 | 61 | 1.0 | 2.0 | 0.00 | 0.00 | 0.00 | 94 | 1008.6 |
| 20260508044803 | 52 | 63 | 1.0 | 2.0 | 0.00 | 0.00 | 0.00 | 94 | 1008.6 |
| 20260508044703 | 52 | 62 | 1.0 | 2.0 | 0.00 | 0.00 | 0.00 | 94 | 1008.5 |
| 20260508044603 | 52 | 61 | 1.0 | 2.0 | 0.00 | 0.00 | 0.00 | 94 | 1008.5 |
| 20260508044503 | 52 | 60 | 1.0 | 2.0 | 0.00 | 0.00 | 0.00 | 94 | 1008.5 |
| 20260508044403 | 52 | 60 | 1.0 | 2.0 | 0.00 | 0.00 | 0.00 | 94 | 1008.5 |
| 20260508044303 | 52 | 60 | 1.0 | 2.0 | 0.00 | 0.00 | 0.00 | 94 | 1008.6 |
| 20260508044203 | 52 | 58 | 1.0 | 2.0 | 0.00 | 0.00 | 0.00 | 94 | 1008.4 |
| 20260508044124 | 52 | 60 | 1.0 | 2.0 | 0.00 | 0.00 | 0.00 | 94 | 1008.4 |
| 20260508044004 | 52 | 53 | 1.0 | 2.0 | 0.00 | 0.00 | 0.00 | 94 | 1008.5 |
| 20260508043903 | 52 | 62 | 1.0 | 3.0 | 0.00 | 0.00 | 0.00 | 94 | 1008.3 |
| 20260508043824 | 52 | 62 | 1.0 | 3.0 | 0.00 | 0.00 | 0.00 | 94 | 1008.3 |
| 20260508043724 | 52 | 62 | 1.0 | 3.0 | 0.00 | 0.00 | 0.00 | 94 | 1008.3 |
| 20260508043603 | 52 | 61 | 1.0 | 3.0 | 0.00 | 0.00 | 0.00 | 94 | 1008.7 |
| 20260508043503 | 52 | 61 | 1.0 | 3.0 | 0.00 | 0.00 | 0.00 | 94 | 1008.6 |
| 20260508043403 | 52 | 65 | 1.0 | 3.0 | 0.00 | 0.00 | 0.00 | 93 | 1008.4 |
| 20260508043303 | 52 | 65 | 1.0 | 3.0 | 0.00 | 0.00 | 0.00 | 93 | 1008.4 |
| 20260508043203 | 52 | 65 | 1.0 | 3.0 | 0.00 | 0.00 | 0.00 | 93 | 1008.5 |
| 20260508043103 | 52 | 64 | 1.0 | 3.0 | 0.00 | 0.00 | 0.00 | 93 | 1008.4 |
| 20260508043003 | 52 | 64 | 1.0 | 3.0 | 0.00 | 0.00 | 0.00 | 93 | 1008.4 |
| 20260508042903 | 52 | 67 | 1.0 | 3.0 | 0.00 | 0.00 | 0.00 | 93 | 1008.4 |
| 20260508042824 | 52 | 67 | 1.0 | 3.0 | 0.00 | 0.00 | 0.00 | 93 | 1008.5 |
| 20260508042703 | 52 | 74 | 1.0 | 3.0 | 0.00 | 0.00 | 0.00 | 93 | 1008.5 |
| 20260508042603 | 52 | 75 | 1.0 | 3.0 | 0.00 | 0.00 | 0.00 | 93 | 1008.4 |
| 20260508042503 | 53 | 71 | 1.0 | 3.0 | 0.00 | 0.00 | 0.00 | 93 | 1008.5 |
| 20260508042403 | 53 | 73 | 1.0 | 3.0 | 0.00 | 0.00 | 0.00 | 93 | 1008.4 |
| 20260508042306 | 53 | 71 | 1.0 | 3.0 | 0.00 | 0.00 | 0.00 | 93 | 1008.7 |
| 20260508042203 | 53 | 67 | 1.0 | 3.0 | 0.00 | 0.00 | 0.00 | 93 | 1008.5 |
| 20260508042103 | 53 | 67 | 1.0 | 3.0 | 0.00 | 0.00 | 0.00 | 93 | 1008.5 |
| 20260508042024 | 53 | 70 | 1.0 | 3.0 | 0.00 | 0.00 | 0.00 | 93 | 1008.4 |
| 20260508041903 | 53 | 66 | 1.0 | 3.0 | 0.00 | 0.00 | 0.00 | 93 | 1008.6 |
| 20260508041803 | 53 | 64 | 1.0 | 3.0 | 0.00 | 0.00 | 0.00 | 93 | 1008.4 |
| 20260508041703 | 53 | 59 | 1.0 | 3.0 | 0.00 | 0.00 | 0.00 | 93 | 1008.3 |
| 20260508041624 | 53 | 52 | 1.0 | 2.0 | 0.00 | 0.00 | 0.00 | 93 | 1008.3 |
| 20260508041503 | 53 | 52 | 1.0 | 2.0 | 0.00 | 0.00 | 0.00 | 93 | 1008.4 |
| 20260508041403 | 53 | 54 | 1.0 | 2.0 | 0.00 | 0.00 | 0.00 | 93 | 1008.5 |
| 20260508041303 | 53 | 57 | 1.0 | 2.0 | 0.00 | 0.00 | 0.00 | 92 | 1008.5 |
| 20260508041203 | 53 | 63 | 1.0 | 2.0 | 0.00 | 0.00 | 0.00 | 92 | 1008.5 |
| 20260508041103 | 53 | 71 | 1.0 | 3.0 | 0.00 | 0.00 | 0.00 | 92 | 1008.3 |
| 20260508041003 | 53 | 72 | 1.0 | 3.0 | 0.00 | 0.00 | 0.00 | 92 | 1008.3 |
| 20260508040903 | 53 | 72 | 1.0 | 3.0 | 0.00 | 0.00 | 0.00 | 92 | 1008.3 |
| 20260508040803 | 53 | 76 | 1.0 | 3.0 | 0.00 | 0.00 | 0.00 | 92 | 1008.4 |
| 20260508040703 | 53 | 74 | 1.0 | 3.0 | 0.00 | 0.00 | 0.00 | 92 | 1008.5 |
| 20260508040603 | 53 | 75 | 1.0 | 3.0 | 0.00 | 0.00 | 0.00 | 92 | 1008.2 |
| 20260508040503 | 53 | 75 | 1.0 | 3.0 | 0.00 | 0.00 | 0.00 | 93 | 1008.3 |
| 20260508040403 | 53 | 75 | 1.0 | 3.0 | 0.00 | 0.00 | 0.00 | 93 | 1008.3 |
| 20260508040325 | 53 | 72 | 1.0 | 3.0 | 0.00 | 0.00 | 0.00 | 93 | 1008.4 |
| 20260508040203 | 53 | 70 | 1.0 | 3.0 | 0.00 | 0.00 | 0.00 | 93 | 1008.5 |
| 20260508040003 | 53 | 61 | 1.0 | 2.0 | 0.00 | 0.00 | 0.00 | 93 | 1008.5 |
| 20260508035924 | 53 | 61 | 1.0 | 2.0 | 0.00 | 0.00 | 0.00 | 93 | 1008.5 |
| 20260508035803 | 53 | 66 | 1.0 | 4.0 | 0.00 | 0.00 | 0.00 | 93 | 1008.5 |
| 20260508035703 | 53 | 67 | 1.0 | 4.0 | 0.00 | 0.00 | 0.00 | 93 | 1008.4 |
| 20260508035603 | 53 | 67 | 1.0 | 4.0 | 0.00 | 0.00 | 0.00 | 93 | 1008.6 |
| 20260508035503 | 53 | 65 | 1.0 | 4.0 | 0.00 | 0.00 | 0.00 | 93 | 1008.5 |
| 20260508035403 | 53 | 69 | 1.0 | 4.0 | 0.00 | 0.00 | 0.00 | 93 | 1008.7 |
| 20260508035306 | 53 | 67 | 1.0 | 4.0 | 0.00 | 0.00 | 0.00 | 93 | 1008.6 |
| 20260508035203 | 53 | 67 | 1.0 | 4.0 | 0.00 | 0.00 | 0.00 | 93 | 1008.6 |
| 20260508035124 | 53 | 67 | 1.0 | 4.0 | 0.00 | 0.00 | 0.00 | 93 | 1008.7 |
| 20260508035003 | 53 | 68 | 1.0 | 4.0 | 0.00 | 0.00 | 0.00 | 93 | 1008.7 |
| 20260508034903 | 53 | 68 | 1.0 | 4.0 | 0.00 | 0.00 | 0.00 | 93 | 1008.7 |
| 20260508034824 | 52 | 67 | 1.0 | 4.0 | 0.00 | 0.00 | 0.00 | 93 | 1008.6 |
| 20260508034703 | 52 | 63 | 1.0 | 3.0 | 0.00 | 0.00 | 0.00 | 93 | 1008.5 |
| 20260508034603 | 52 | 61 | 1.0 | 3.0 | 0.00 | 0.00 | 0.00 | 94 | 1008.6 |
| 20260508034503 | 52 | 63 | 1.0 | 3.0 | 0.00 | 0.00 | 0.00 | 94 | 1008.6 |
| 20260508034403 | 52 | 67 | 1.0 | 3.0 | 0.00 | 0.00 | 0.00 | 94 | 1008.6 |
| 20260508034303 | 52 | 62 | 1.0 | 3.0 | 0.00 | 0.00 | 0.00 | 94 | 1008.5 |
| 20260508034203 | 52 | 65 | 1.0 | 3.0 | 0.00 | 0.00 | 0.00 | 94 | 1008.6 |
| 20260508034103 | 52 | 65 | 1.0 | 3.0 | 0.00 | 0.00 | 0.00 | 94 | 1008.6 |
| 20260508034004 | 52 | 67 | 1.0 | 3.0 | 0.00 | 0.00 | 0.00 | 94 | 1008.5 |
| 20260508033924 | 52 | 66 | 1.0 | 3.0 | 0.00 | 0.00 | 0.00 | 94 | 1008.5 |
| 20260508033824 | 52 | 65 | 1.0 | 3.0 | 0.00 | 0.00 | 0.00 | 94 | 1008.7 |
| 20260508033703 | 52 | 74 | 1.0 | 3.0 | 0.00 | 0.00 | 0.00 | 94 | 1008.5 |
| 20260508033603 | 52 | 74 | 1.0 | 3.0 | 0.00 | 0.00 | 0.00 | 94 | 1008.8 |
| 20260508033503 | 52 | 78 | 1.0 | 3.0 | 0.00 | 0.00 | 0.00 | 94 | 1008.8 |
| 20260508033424 | 52 | 79 | 1.0 | 3.0 | 0.00 | 0.00 | 0.00 | 94 | 1008.7 |
| 20260508033303 | 52 | 76 | 0.0 | 3.0 | 0.00 | 0.00 | 0.00 | 94 | 1008.5 |
| 20260508033203 | 52 | 71 | 0.0 | 3.0 | 0.00 | 0.00 | 0.00 | 94 | 1008.6 |
| 20260508033103 | 52 | 69 | 1.0 | 3.0 | 0.00 | 0.00 | 0.00 | 94 | 1008.7 |
| 20260508033025 | 52 | 68 | 1.0 | 3.0 | 0.00 | 0.00 | 0.00 | 94 | 1008.8 |
| 20260508032903 | 52 | 64 | 1.0 | 3.0 | 0.00 | 0.00 | 0.00 | 94 | 1008.6 |
| 20260508032804 | 52 | 63 | 1.0 | 3.0 | 0.00 | 0.00 | 0.00 | 94 | 1008.7 |
| 20260508032703 | 52 | 56 | 1.0 | 2.0 | 0.00 | 0.00 | 0.00 | 94 | 1008.7 |
| 20260508032624 | 52 | 56 | 1.0 | 2.0 | 0.00 | 0.00 | 0.00 | 94 | 1008.7 |
| 20260508032524 | 52 | 60 | 1.0 | 3.0 | 0.00 | 0.00 | 0.00 | 94 | 1008.7 |
| 20260508032403 | 52 | 57 | 1.0 | 3.0 | 0.00 | 0.00 | 0.00 | 94 | 1008.9 |
| 20260508032306 | 52 | 58 | 1.0 | 3.0 | 0.00 | 0.00 | 0.00 | 94 | 1008.8 |
| 20260508032203 | 52 | 59 | 1.0 | 3.0 | 0.00 | 0.00 | 0.00 | 94 | 1009.0 |
| 20260508032103 | 52 | 59 | 1.0 | 3.0 | 0.00 | 0.00 | 0.00 | 94 | 1009.0 |
| 20260508032003 | 52 | 60 | 1.0 | 3.0 | 0.00 | 0.00 | 0.00 | 94 | 1008.7 |
| 20260508031924 | 52 | 60 | 1.0 | 3.0 | 0.00 | 0.00 | 0.00 | 94 | 1008.9 |
| 20260508031804 | 52 | 62 | 1.0 | 3.0 | 0.00 | 0.00 | 0.00 | 94 | 1008.8 |
| 20260508031703 | 52 | 61 | 1.0 | 3.0 | 0.00 | 0.00 | 0.00 | 94 | 1008.8 |
| 20260508031603 | 52 | 57 | 1.0 | 3.0 | 0.00 | 0.00 | 0.00 | 94 | 1008.8 |
| 20260508031503 | 52 | 53 | 1.0 | 2.0 | 0.00 | 0.00 | 0.00 | 94 | 1008.8 |
| 20260508031403 | 52 | 50 | 1.0 | 2.0 | 0.00 | 0.00 | 0.00 | 94 | 1008.8 |
| 20260508031324 | 52 | 54 | 0.0 | 2.0 | 0.00 | 0.00 | 0.00 | 94 | 1008.7 |
| 20260508031203 | 52 | 47 | 0.0 | 2.0 | 0.00 | 0.00 | 0.00 | 94 | 1008.8 |
| 20260508031104 | 52 | 47 | 1.0 | 3.0 | 0.00 | 0.00 | 0.00 | 94 | 1008.7 |
| 20260508031003 | 52 | 46 | 1.0 | 3.0 | 0.00 | 0.00 | 0.00 | 94 | 1008.6 |
| 20260508030903 | 52 | 52 | 1.0 | 3.0 | 0.00 | 0.00 | 0.00 | 94 | 1008.8 |
| 20260508030803 | 52 | 53 | 1.0 | 3.0 | 0.00 | 0.00 | 0.00 | 94 | 1008.6 |
| 20260508030703 | 52 | 53 | 1.0 | 3.0 | 0.00 | 0.00 | 0.00 | 94 | 1008.6 |
| 20260508030624 | 52 | 53 | 1.0 | 3.0 | 0.00 | 0.00 | 0.00 | 94 | 1008.6 |
| 20260508030524 | 52 | 57 | 1.0 | 3.0 | 0.00 | 0.00 | 0.00 | 94 | 1008.7 |
| 20260508030403 | 52 | 64 | 1.0 | 3.0 | 0.00 | 0.00 | 0.00 | 94 | 1008.7 |
| 20260508030303 | 52 | 65 | 2.0 | 3.0 | 0.00 | 0.00 | 0.00 | 94 | 1008.7 |
| 20260508030203 | 52 | 64 | 2.0 | 3.0 | 0.00 | 0.00 | 0.00 | 94 | 1008.7 |
| 20260508030103 | 52 | 66 | 1.0 | 3.0 | 0.00 | 0.00 | 0.00 | 94 | 1008.7 |
| 20260508030003 | 52 | 68 | 1.0 | 3.0 | 0.00 | 0.00 | 0.00 | 94 | 1008.7 |
| 20260508025903 | 52 | 69 | 1.0 | 3.0 | 0.00 | 0.00 | 0.00 | 94 | 1008.7 |
| 20260508025803 | 52 | 67 | 1.0 | 3.0 | 0.00 | 0.00 | 0.00 | 94 | 1008.5 |
| 20260508025703 | 52 | 67 | 1.0 | 3.0 | 0.00 | 0.00 | 0.00 | 94 | 1008.6 |
| 20260508025603 | 52 | 64 | 1.0 | 3.0 | 0.00 | 0.00 | 0.00 | 94 | 1008.6 |
| 20260508025524 | 52 | 70 | 1.0 | 3.0 | 0.00 | 0.00 | 0.00 | 94 | 1008.7 |
| 20260508025403 | 52 | 63 | 1.0 | 3.0 | 0.00 | 0.00 | 0.00 | 94 | 1008.5 |
| 20260508025324 | 52 | 57 | 1.0 | 3.0 | 0.00 | 0.00 | 0.00 | 94 | 1008.6 |
| 20260508025203 | 52 | 58 | 1.0 | 3.0 | 0.00 | 0.00 | 0.00 | 94 | 1008.6 |
| 20260508025103 | 52 | 68 | 1.0 | 3.0 | 0.00 | 0.00 | 0.00 | 94 | 1008.6 |
| 20260508025003 | 52 | 68 | 1.0 | 3.0 | 0.00 | 0.00 | 0.00 | 94 | 1008.7 |
| 20260508024903 | 52 | 68 | 1.0 | 3.0 | 0.00 | 0.00 | 0.00 | 94 | 1008.7 |
| 20260508024803 | 52 | 68 | 1.0 | 3.0 | 0.00 | 0.00 | 0.00 | 94 | 1008.7 |
| 20260508024703 | 52 | 68 | 1.0 | 3.0 | 0.00 | 0.00 | 0.00 | 94 | 1008.5 |
| 20260508024603 | 52 | 70 | 1.0 | 3.0 | 0.00 | 0.00 | 0.00 | 94 | 1008.7 |
| 20260508024503 | 52 | 72 | 1.0 | 3.0 | 0.00 | 0.00 | 0.00 | 94 | 1008.6 |
| 20260508024403 | 52 | 65 | 1.0 | 3.0 | 0.00 | 0.00 | 0.00 | 94 | 1008.8 |
| 20260508024303 | 52 | 64 | 1.0 | 3.0 | 0.00 | 0.00 | 0.00 | 94 | 1008.6 |
| 20260508024203 | 52 | 66 | 1.0 | 3.0 | 0.00 | 0.00 | 0.00 | 94 | 1008.8 |
| 20260508024103 | 52 | 66 | 1.0 | 3.0 | 0.00 | 0.00 | 0.00 | 94 | 1008.8 |
| 20260508024003 | 52 | 57 | 1.0 | 3.0 | 0.00 | 0.00 | 0.00 | 94 | 1008.7 |
| 20260508023924 | 52 | 57 | 1.0 | 3.0 | 0.00 | 0.00 | 0.00 | 94 | 1008.7 |
| 20260508023824 | 52 | 58 | 1.0 | 3.0 | 0.00 | 0.00 | 0.00 | 94 | 1008.6 |
| 20260508023703 | 52 | 56 | 1.0 | 2.0 | 0.00 | 0.00 | 0.00 | 94 | 1008.6 |
| 20260508023603 | 52 | 56 | 1.0 | 2.0 | 0.00 | 0.00 | 0.00 | 94 | 1008.6 |
| 20260508023503 | 52 | 56 | 1.0 | 2.0 | 0.00 | 0.00 | 0.00 | 94 | 1008.6 |
| 20260508023404 | 52 | 55 | 1.0 | 2.0 | 0.00 | 0.00 | 0.00 | 94 | 1008.5 |
| 20260508023303 | 52 | 55 | 1.0 | 2.0 | 0.00 | 0.00 | 0.00 | 94 | 1008.6 |
| 20260508023203 | 52 | 55 | 1.0 | 2.0 | 0.00 | 0.00 | 0.00 | 94 | 1008.6 |
| 20260508023103 | 52 | 56 | 1.0 | 2.0 | 0.00 | 0.00 | 0.00 | 94 | 1008.7 |
| 20260508023003 | 52 | 57 | 1.0 | 2.0 | 0.00 | 0.00 | 0.00 | 94 | 1008.7 |
| 20260508022903 | 52 | 57 | 1.0 | 2.0 | 0.00 | 0.00 | 0.00 | 94 | 1008.6 |
| 20260508022803 | 52 | 56 | 1.0 | 2.0 | 0.00 | 0.00 | 0.00 | 94 | 1008.5 |
| 20260508022703 | 52 | 56 | 1.0 | 2.0 | 0.00 | 0.00 | 0.00 | 94 | 1008.7 |
| 20260508022624 | 52 | 56 | 1.0 | 2.0 | 0.00 | 0.00 | 0.00 | 94 | 1008.7 |
| 20260508022524 | 52 | 52 | 1.0 | 3.0 | 0.00 | 0.00 | 0.00 | 94 | 1008.7 |
| 20260508022424 | 52 | 51 | 1.0 | 3.0 | 0.00 | 0.00 | 0.00 | 94 | 1008.6 |
| 20260508022306 | 52 | 51 | 1.0 | 3.0 | 0.00 | 0.00 | 0.00 | 94 | 1008.6 |
| 20260508022204 | 52 | 51 | 1.0 | 3.0 | 0.00 | 0.00 | 0.00 | 94 | 1008.7 |
| 20260508022103 | 52 | 51 | 1.0 | 3.0 | 0.00 | 0.00 | 0.00 | 94 | 1008.7 |
| 20260508022003 | 52 | 51 | 1.0 | 3.0 | 0.00 | 0.00 | 0.00 | 94 | 1008.7 |
| 20260508021903 | 52 | 53 | 1.0 | 3.0 | 0.00 | 0.00 | 0.00 | 94 | 1008.8 |
| 20260508021803 | 52 | 53 | 1.0 | 3.0 | 0.00 | 0.00 | 0.00 | 94 | 1008.8 |
| 20260508021704 | 52 | 54 | 1.0 | 3.0 | 0.00 | 0.00 | 0.00 | 94 | 1008.8 |
| 20260508021603 | 52 | 54 | 1.0 | 3.0 | 0.00 | 0.00 | 0.00 | 94 | 1008.8 |
| 20260508021503 | 52 | 55 | 1.0 | 3.0 | 0.00 | 0.00 | 0.00 | 94 | 1008.8 |
| 20260508021403 | 52 | 56 | 1.0 | 3.0 | 0.00 | 0.00 | 0.00 | 94 | 1008.7 |
| 20260508021303 | 52 | 58 | 1.0 | 3.0 | 0.00 | 0.00 | 0.00 | 94 | 1008.7 |
| 20260508021203 | 52 | 61 | 2.0 | 3.0 | 0.00 | 0.00 | 0.00 | 94 | 1008.7 |
| 20260508021103 | 52 | 61 | 2.0 | 3.0 | 0.00 | 0.00 | 0.00 | 94 | 1008.7 |
| 20260508021003 | 52 | 61 | 1.0 | 3.0 | 0.00 | 0.00 | 0.00 | 94 | 1008.7 |
| 20260508020903 | 52 | 60 | 1.0 | 3.0 | 0.00 | 0.00 | 0.00 | 94 | 1008.7 |
| 20260508020803 | 52 | 61 | 1.0 | 3.0 | 0.00 | 0.00 | 0.00 | 94 | 1008.8 |
| 20260508020703 | 52 | 60 | 1.0 | 3.0 | 0.00 | 0.00 | 0.00 | 94 | 1008.9 |
| 20260508020603 | 52 | 61 | 2.0 | 3.0 | 0.00 | 0.00 | 0.00 | 94 | 1008.8 |
| 20260508020503 | 52 | 61 | 2.0 | 3.0 | 0.00 | 0.00 | 0.00 | 94 | 1008.8 |
| 20260508020403 | 52 | 61 | 1.0 | 3.0 | 0.00 | 0.00 | 0.00 | 95 | 1008.7 |
| 20260508020324 | 52 | 60 | 1.0 | 3.0 | 0.00 | 0.00 | 0.00 | 95 | 1008.8 |
| 20260508020203 | 52 | 59 | 1.0 | 3.0 | 0.00 | 0.00 | 0.00 | 95 | 1008.8 |
| 20260508020124 | 52 | 53 | 1.0 | 2.0 | 0.00 | 0.00 | 0.00 | 95 | 1008.9 |
| 20260508020003 | 52 | 54 | 1.0 | 2.0 | 0.00 | 0.00 | 0.00 | 95 | 1008.7 |
| 20260508015903 | 52 | 54 | 1.0 | 2.0 | 0.00 | 0.00 | 0.00 | 95 | 1008.8 |
| 20260508015803 | 52 | 57 | 1.0 | 2.0 | 0.00 | 0.00 | 0.00 | 95 | 1008.8 |
| 20260508015703 | 52 | 56 | 1.0 | 2.0 | 0.00 | 0.00 | 0.00 | 95 | 1008.8 |
| 20260508015603 | 52 | 55 | 1.0 | 2.0 | 0.00 | 0.00 | 0.00 | 95 | 1008.8 |
| 20260508015503 | 52 | 55 | 1.0 | 2.0 | 0.00 | 0.00 | 0.00 | 95 | 1008.8 |
| 20260508015403 | 52 | 56 | 1.0 | 2.0 | 0.00 | 0.00 | 0.00 | 95 | 1008.8 |
| 20260508015305 | 52 | 57 | 1.0 | 2.0 | 0.00 | 0.00 | 0.00 | 95 | 1008.8 |
| 20260508015203 | 52 | 61 | 1.0 | 3.0 | 0.00 | 0.00 | 0.00 | 95 | 1008.6 |
| 20260508015104 | 52 | 63 | 1.0 | 3.0 | 0.00 | 0.00 | 0.00 | 95 | 1008.8 |
| 20260508015003 | 52 | 66 | 1.0 | 3.0 | 0.00 | 0.00 | 0.00 | 95 | 1008.9 |
| 20260508014903 | 52 | 65 | 2.0 | 3.0 | 0.00 | 0.00 | 0.00 | 95 | 1008.8 |
| 20260508014824 | 52 | 65 | 2.0 | 3.0 | 0.00 | 0.00 | 0.00 | 95 | 1008.8 |
| 20260508014703 | 52 | 64 | 2.0 | 3.0 | 0.00 | 0.00 | 0.00 | 96 | 1008.7 |
| 20260508014624 | 52 | 63 | 2.0 | 3.0 | 0.00 | 0.00 | 0.00 | 96 | 1008.9 |
| 20260508014524 | 52 | 64 | 2.0 | 3.0 | 0.00 | 0.00 | 0.00 | 96 | 1009.0 |
| 20260508014403 | 52 | 64 | 2.0 | 3.0 | 0.00 | 0.00 | 0.00 | 96 | 1009.0 |
| 20260508014303 | 52 | 63 | 2.0 | 3.0 | 0.00 | 0.00 | 0.00 | 96 | 1009.0 |
| 20260508014203 | 52 | 62 | 2.0 | 3.0 | 0.00 | 0.00 | 0.00 | 96 | 1009.0 |
| 20260508014103 | 52 | 60 | 2.0 | 3.0 | 0.00 | 0.00 | 0.00 | 96 | 1009.0 |
| 20260508014003 | 52 | 60 | 2.0 | 3.0 | 0.00 | 0.00 | 0.00 | 96 | 1009.0 |
| 20260508013903 | 52 | 57 | 2.0 | 3.0 | 0.00 | 0.00 | 0.00 | 96 | 1009.1 |
| 20260508013803 | 52 | 57 | 2.0 | 3.0 | 0.00 | 0.00 | 0.00 | 96 | 1009.0 |
| 20260508013724 | 52 | 57 | 2.0 | 3.0 | 0.00 | 0.00 | 0.00 | 96 | 1009.0 |
| 20260508013603 | 52 | 55 | 2.0 | 3.0 | 0.00 | 0.00 | 0.00 | 96 | 1009.1 |
| 20260508013503 | 52 | 56 | 1.0 | 3.0 | 0.00 | 0.00 | 0.00 | 96 | 1009.2 |
| 20260508013403 | 52 | 56 | 1.0 | 3.0 | 0.00 | 0.00 | 0.00 | 96 | 1009.1 |
| 20260508013303 | 52 | 56 | 1.0 | 3.0 | 0.00 | 0.00 | 0.00 | 97 | 1009.1 |
| 20260508013203 | 52 | 56 | 1.0 | 3.0 | 0.00 | 0.00 | 0.00 | 97 | 1009.0 |
| 20260508013103 | 52 | 59 | 1.0 | 3.0 | 0.00 | 0.00 | 0.00 | 97 | 1009.0 |
| 20260508013003 | 52 | 57 | 1.0 | 3.0 | 0.00 | 0.00 | 0.00 | 97 | 1009.2 |
| 20260508012903 | 52 | 56 | 1.0 | 3.0 | 0.00 | 0.00 | 0.00 | 97 | 1009.2 |
| 20260508012803 | 51 | 58 | 1.0 | 3.0 | 0.00 | 0.00 | 0.00 | 97 | 1009.1 |
| 20260508012703 | 51 | 64 | 1.0 | 3.0 | 0.00 | 0.00 | 0.00 | 97 | 1009.0 |
| 20260508012603 | 51 | 63 | 1.0 | 3.0 | 0.00 | 0.00 | 0.00 | 97 | 1009.1 |
| 20260508012503 | 51 | 63 | 1.0 | 3.0 | 0.00 | 0.00 | 0.00 | 97 | 1009.1 |
| 20260508012403 | 51 | 64 | 1.0 | 3.0 | 0.00 | 0.00 | 0.00 | 97 | 1009.2 |
| 20260508012307 | 51 | 65 | 1.0 | 3.0 | 0.00 | 0.00 | 0.00 | 97 | 1009.4 |
| 20260508012204 | 51 | 73 | 1.0 | 4.0 | 0.00 | 0.00 | 0.00 | 97 | 1009.2 |
| 20260508012103 | 51 | 75 | 1.0 | 4.0 | 0.00 | 0.00 | 0.00 | 97 | 1009.2 |
| 20260508012003 | 51 | 74 | 1.0 | 4.0 | 0.00 | 0.00 | 0.00 | 97 | 1009.2 |
| 20260508011924 | 51 | 75 | 1.0 | 4.0 | 0.00 | 0.00 | 0.00 | 97 | 1009.1 |
| 20260508011803 | 51 | 76 | 2.0 | 4.0 | 0.00 | 0.00 | 0.00 | 98 | 1009.3 |
| 20260508011703 | 51 | 75 | 2.0 | 4.0 | 0.00 | 0.00 | 0.00 | 98 | 1009.3 |
| 20260508011603 | 52 | 71 | 1.0 | 4.0 | 0.00 | 0.00 | 0.00 | 98 | 1009.1 |
| 20260508011503 | 52 | 74 | 2.0 | 4.0 | 0.00 | 0.00 | 0.00 | 98 | 1009.2 |
| 20260508011425 | 52 | 74 | 2.0 | 4.0 | 0.00 | 0.00 | 0.00 | 98 | 1009.2 |
| 20260508011324 | 51 | 75 | 2.0 | 4.0 | 0.00 | 0.00 | 0.00 | 98 | 1009.3 |
| 20260508011203 | 51 | 67 | 2.0 | 3.0 | 0.00 | 0.00 | 0.00 | 98 | 1009.2 |
| 20260508011124 | 51 | 67 | 2.0 | 3.0 | 0.00 | 0.00 | 0.00 | 98 | 1009.2 |
| 20260508011003 | 51 | 65 | 2.0 | 3.0 | 0.00 | 0.00 | 0.00 | 98 | 1009.2 |
| 20260508010903 | 51 | 65 | 2.0 | 3.0 | 0.00 | 0.00 | 0.00 | 98 | 1009.2 |
| 20260508010803 | 51 | 65 | 2.0 | 3.0 | 0.00 | 0.00 | 0.00 | 98 | 1009.3 |
| 20260508010725 | 51 | 65 | 2.0 | 3.0 | 0.00 | 0.00 | 0.00 | 98 | 1009.1 |
| 20260508010603 | 51 | 63 | 1.0 | 3.0 | 0.00 | 0.00 | 0.00 | 98 | 1009.4 |
| 20260508010503 | 51 | 63 | 1.0 | 3.0 | 0.00 | 0.00 | 0.00 | 98 | 1009.4 |
| 20260508010404 | 51 | 62 | 1.0 | 3.0 | 0.00 | 0.00 | 0.00 | 98 | 1009.3 |
| 20260508010303 | 51 | 59 | 1.0 | 3.0 | 0.00 | 0.00 | 0.00 | 98 | 1009.3 |
| 20260508010224 | 51 | 58 | 1.0 | 2.0 | 0.00 | 0.00 | 0.00 | 98 | 1009.3 |
| 20260508010124 | 51 | 58 | 1.0 | 2.0 | 0.00 | 0.00 | 0.00 | 98 | 1009.2 |
| 20260508010003 | 51 | 58 | 1.0 | 2.0 | 0.00 | 0.00 | 0.00 | 98 | 1009.3 |
| 20260508005903 | 51 | 57 | 1.0 | 2.0 | 0.00 | 0.00 | 0.00 | 98 | 1009.2 |
| 20260508005803 | 51 | 58 | 1.0 | 2.0 | 0.00 | 0.00 | 0.00 | 98 | 1009.4 |
| 20260508005703 | 51 | 55 | 1.0 | 2.0 | 0.00 | 0.00 | 0.00 | 98 | 1009.4 |
| 20260508005603 | 51 | 54 | 1.0 | 2.0 | 0.00 | 0.00 | 0.00 | 98 | 1009.3 |
| 20260508005524 | 51 | 54 | 1.0 | 2.0 | 0.00 | 0.00 | 0.00 | 98 | 1009.3 |
| 20260508005402 | 51 | 49 | 1.0 | 2.0 | 0.00 | 0.00 | 0.00 | 98 | 1009.6 |
| 20260508005305 | 51 | 53 | 1.0 | 3.0 | 0.00 | 0.00 | 0.00 | 98 | 1009.5 |
| 20260508005203 | 51 | 53 | 1.0 | 3.0 | 0.00 | 0.00 | 0.00 | 98 | 1009.5 |
| 20260508005103 | 51 | 54 | 1.0 | 3.0 | 0.00 | 0.00 | 0.00 | 98 | 1009.5 |
| 20260508005024 | 51 | 54 | 1.0 | 3.0 | 0.00 | 0.00 | 0.00 | 98 | 1009.5 |
| 20260508004903 | 51 | 62 | 1.0 | 3.0 | 0.00 | 0.00 | 0.00 | 98 | 1009.6 |
| 20260508004803 | 51 | 63 | 1.0 | 3.0 | 0.00 | 0.00 | 0.00 | 98 | 1009.7 |
| 20260508004703 | 51 | 66 | 1.0 | 3.0 | 0.00 | 0.00 | 0.00 | 98 | 1009.4 |
| 20260508004603 | 51 | 69 | 2.0 | 3.0 | 0.00 | 0.00 | 0.00 | 98 | 1009.4 |
| 20260508004503 | 51 | 69 | 2.0 | 3.0 | 0.00 | 0.00 | 0.00 | 98 | 1009.5 |
| 20260508004403 | 51 | 69 | 2.0 | 3.0 | 0.00 | 0.00 | 0.00 | 98 | 1009.5 |
| 20260508004303 | 51 | 70 | 2.0 | 3.0 | 0.00 | 0.00 | 0.00 | 98 | 1009.4 |
| 20260508004203 | 51 | 72 | 2.0 | 3.0 | 0.00 | 0.00 | 0.00 | 98 | 1009.5 |
| 20260508004103 | 51 | 69 | 2.0 | 3.0 | 0.00 | 0.00 | 0.00 | 98 | 1009.6 |
| 20260508004002 | 51 | 68 | 2.0 | 3.0 | 0.00 | 0.00 | 0.00 | 98 | 1009.5 |
| 20260508003903 | 51 | 64 | 2.0 | 3.0 | 0.00 | 0.00 | 0.00 | 98 | 1009.3 |
| 20260508003803 | 51 | 63 | 2.0 | 3.0 | 0.00 | 0.00 | 0.00 | 98 | 1009.4 |
| 20260508003703 | 51 | 63 | 2.0 | 3.0 | 0.00 | 0.00 | 0.00 | 98 | 1009.4 |
| 20260508003603 | 51 | 56 | 1.0 | 3.0 | 0.00 | 0.00 | 0.00 | 98 | 1009.6 |
| 20260508003503 | 51 | 56 | 1.0 | 3.0 | 0.00 | 0.00 | 0.00 | 98 | 1009.6 |
| 20260508003403 | 51 | 58 | 1.0 | 3.0 | 0.00 | 0.00 | 0.00 | 98 | 1009.6 |
| 20260508003303 | 51 | 57 | 1.0 | 3.0 | 0.00 | 0.00 | 0.00 | 98 | 1009.8 |
| 20260508003203 | 51 | 53 | 1.0 | 2.0 | 0.00 | 0.00 | 0.00 | 98 | 1009.6 |
| 20260508003103 | 51 | 46 | 0.0 | 2.0 | 0.00 | 0.00 | 0.00 | 98 | 1009.6 |
| 20260508003003 | 51 | 51 | 0.0 | 2.0 | 0.00 | 0.00 | 0.00 | 98 | 1009.6 |
| 20260508002903 | 51 | 51 | 0.0 | 2.0 | 0.00 | 0.00 | 0.00 | 98 | 1009.6 |
| 20260508002803 | 51 | 54 | 0.0 | 2.0 | 0.00 | 0.00 | 0.00 | 98 | 1009.6 |
| 20260508002724 | 51 | 55 | 0.0 | 2.0 | 0.00 | 0.00 | 0.00 | 98 | 1009.5 |
| 20260508002603 | 51 | 53 | 0.0 | 2.0 | 0.00 | 0.00 | 0.00 | 98 | 1009.7 |
| 20260508002503 | 51 | 54 | 0.0 | 2.0 | 0.00 | 0.00 | 0.00 | 98 | 1009.6 |
| 20260508002403 | 51 | 54 | 0.0 | 2.0 | 0.00 | 0.00 | 0.00 | 98 | 1009.6 |
| 20260508002324 | 51 | 54 | 0.0 | 2.0 | 0.00 | 0.00 | 0.00 | 98 | 1009.6 |
| 20260508002203 | 51 | 54 | 0.0 | 2.0 | 0.00 | 0.00 | 0.00 | 98 | 1009.6 |
| 20260508002103 | 51 | 61 | 0.0 | 2.0 | 0.00 | 0.00 | 0.00 | 98 | 1009.6 |
| 20260508002003 | 51 | 61 | 0.0 | 2.0 | 0.00 | 0.00 | 0.00 | 98 | 1009.8 |
| 20260508001903 | 51 | 61 | 0.0 | 2.0 | 0.00 | 0.00 | 0.00 | 98 | 1009.8 |
| 20260508001824 | 51 | 59 | 0.0 | 2.0 | 0.00 | 0.00 | 0.00 | 98 | 1009.8 |
| 20260508001703 | 51 | 60 | 1.0 | 2.0 | 0.00 | 0.00 | 0.00 | 98 | 1009.8 |
| 20260508001624 | 51 | 60 | 1.0 | 2.0 | 0.00 | 0.00 | 0.00 | 98 | 1009.8 |
| 20260508001503 | 51 | 61 | 1.0 | 2.0 | 0.00 | 0.00 | 0.00 | 98 | 1009.8 |
| 20260508001403 | 51 | 59 | 1.0 | 2.0 | 0.00 | 0.00 | 0.00 | 98 | 1009.7 |
| 20260508001303 | 51 | 60 | 1.0 | 2.0 | 0.00 | 0.00 | 0.00 | 98 | 1009.8 |
| 20260508001203 | 51 | 60 | 1.0 | 2.0 | 0.00 | 0.00 | 0.00 | 98 | 1009.7 |
| 20260508001103 | 51 | 60 | 1.0 | 2.0 | 0.00 | 0.00 | 0.00 | 98 | 1009.8 |
| 20260508001003 | 51 | 56 | 1.0 | 2.0 | 0.00 | 0.00 | 0.00 | 98 | 1009.8 |
| 20260508000903 | 51 | 57 | 1.0 | 2.0 | 0.00 | 0.00 | 0.00 | 98 | 1009.7 |
| 20260508000803 | 51 | 57 | 1.0 | 2.0 | 0.00 | 0.00 | 0.00 | 98 | 1009.7 |
| 20260508000703 | 51 | 58 | 0.0 | 2.0 | 0.00 | 0.00 | 0.00 | 98 | 1009.8 |
| 20260508000603 | 51 | 54 | 0.0 | 2.0 | 0.00 | 0.00 | 0.00 | 98 | 1009.8 |
| 20260508000503 | 51 | 48 | 0.0 | 1.0 | 0.00 | 0.00 | 0.00 | 98 | 1009.7 |
| 20260508000404 | 51 | 59 | 0.0 | 2.0 | 0.00 | 0.00 | 0.00 | 98 | 1009.7 |
| 20260508000305 | 51 | 56 | 0.0 | 2.0 | 0.00 | 0.00 | 0.00 | 98 | 1009.8 |
| 20260508000204 | 51 | 54 | 1.0 | 2.0 | 0.00 | 0.00 | 0.00 | 98 | 1009.7 |
| 20260508000003 | 51 | 52 | 1.0 | 2.0 | 0.00 | 0.00 | 0.00 | 98 | 1009.6 |
| 20260507235903 | 51 | 57 | 1.0 | 2.0 | 0.00 | 0.00 | 0.00 | 98 | 1009.7 |
| 20260507235803 | 51 | 58 | 1.0 | 2.0 | 0.00 | 0.00 | 0.00 | 98 | 1009.9 |
| 20260507235703 | 51 | 58 | 1.0 | 2.0 | 0.00 | 0.00 | 0.00 | 98 | 1009.9 |
| 20260507235603 | 51 | 58 | 1.0 | 2.0 | 0.00 | 0.00 | 0.00 | 98 | 1009.8 |
| 20260507235503 | 51 | 61 | 1.0 | 2.0 | 0.00 | 0.00 | 0.00 | 98 | 1009.8 |
| 20260507235403 | 52 | 61 | 1.0 | 2.0 | 0.00 | 0.00 | 0.00 | 98 | 1009.9 |
| 20260507235306 | 52 | 60 | 1.0 | 2.0 | 0.00 | 0.00 | 0.00 | 98 | 1009.8 |
| 20260507235203 | 52 | 58 | 1.0 | 3.0 | 0.00 | 0.00 | 0.00 | 98 | 1009.8 |
| 20260507235103 | 52 | 59 | 1.0 | 3.0 | 0.00 | 0.00 | 0.00 | 98 | 1009.8 |
| 20260507235024 | 52 | 59 | 1.0 | 3.0 | 0.00 | 0.00 | 0.00 | 98 | 1010.0 |
| 20260507234903 | 52 | 60 | 1.0 | 3.0 | 0.00 | 0.00 | 0.00 | 98 | 1009.8 |
| 20260507234803 | 52 | 57 | 1.0 | 3.0 | 0.00 | 0.00 | 0.00 | 98 | 1009.9 |
| 20260507234703 | 52 | 57 | 1.0 | 3.0 | 0.00 | 0.00 | 0.00 | 98 | 1009.8 |
| 20260507234603 | 52 | 57 | 1.0 | 3.0 | 0.00 | 0.00 | 0.00 | 98 | 1010.0 |
| 20260507234503 | 52 | 51 | 1.0 | 3.0 | 0.00 | 0.00 | 0.00 | 98 | 1009.9 |
| 20260507234403 | 52 | 51 | 1.0 | 3.0 | 0.00 | 0.00 | 0.00 | 98 | 1009.9 |
| 20260507234303 | 52 | 51 | 1.0 | 3.0 | 0.00 | 0.00 | 0.00 | 98 | 1009.9 |
| 20260507234224 | 52 | 53 | 1.0 | 3.0 | 0.00 | 0.00 | 0.00 | 98 | 1010.1 |
| 20260507234103 | 52 | 55 | 1.0 | 3.0 | 0.00 | 0.00 | 0.00 | 98 | 1010.0 |
| 20260507234003 | 52 | 56 | 1.0 | 3.0 | 0.00 | 0.00 | 0.00 | 98 | 1009.8 |
| 20260507233924 | 52 | 58 | 1.0 | 3.0 | 0.00 | 0.00 | 0.00 | 98 | 1009.8 |
| 20260507233803 | 52 | 57 | 1.0 | 3.0 | 0.00 | 0.00 | 0.00 | 98 | 1009.8 |
| 20260507233703 | 52 | 57 | 1.0 | 3.0 | 0.00 | 0.00 | 0.00 | 98 | 1010.0 |
| 20260507233603 | 52 | 57 | 1.0 | 3.0 | 0.00 | 0.00 | 0.00 | 98 | 1009.8 |
| 20260507233503 | 52 | 56 | 1.0 | 3.0 | 0.00 | 0.00 | 0.00 | 98 | 1009.9 |
| 20260507233403 | 52 | 58 | 1.0 | 3.0 | 0.00 | 0.00 | 0.00 | 98 | 1010.0 |
| 20260507233303 | 52 | 66 | 1.0 | 4.0 | 0.00 | 0.00 | 0.00 | 98 | 1010.0 |
| 20260507233203 | 52 | 66 | 1.0 | 4.0 | 0.00 | 0.00 | 0.00 | 98 | 1009.9 |
| 20260507233103 | 52 | 69 | 1.0 | 4.0 | 0.00 | 0.00 | 0.00 | 98 | 1010.1 |
| 20260507233003 | 52 | 68 | 1.0 | 4.0 | 0.00 | 0.00 | 0.00 | 98 | 1010.0 |
| 20260507232903 | 52 | 75 | 2.0 | 4.0 | 0.00 | 0.00 | 0.00 | 98 | 1009.9 |
| 20260507232803 | 52 | 75 | 2.0 | 4.0 | 0.00 | 0.00 | 0.00 | 98 | 1010.0 |
| 20260507232724 | 52 | 75 | 2.0 | 4.0 | 0.00 | 0.00 | 0.00 | 98 | 1010.0 |
| 20260507232625 | 52 | 74 | 2.0 | 4.0 | 0.00 | 0.00 | 0.00 | 98 | 1009.9 |
| 20260507232503 | 52 | 72 | 2.0 | 4.0 | 0.00 | 0.00 | 0.00 | 98 | 1009.9 |
| 20260507232403 | 52 | 72 | 2.0 | 4.0 | 0.00 | 0.00 | 0.00 | 98 | 1010.0 |
| 20260507232306 | 52 | 75 | 2.0 | 4.0 | 0.00 | 0.00 | 0.00 | 98 | 1009.9 |
| 20260507232203 | 52 | 71 | 2.0 | 4.0 | 0.00 | 0.00 | 0.00 | 98 | 1010.1 |
| 20260507232103 | 52 | 71 | 2.0 | 4.0 | 0.00 | 0.00 | 0.00 | 98 | 1010.0 |
| 20260507232003 | 52 | 71 | 2.0 | 4.0 | 0.00 | 0.00 | 0.00 | 98 | 1010.0 |
| 20260507231903 | 52 | 72 | 2.0 | 4.0 | 0.00 | 0.00 | 0.00 | 98 | 1010.0 |
| 20260507231803 | 52 | 70 | 2.0 | 3.0 | 0.00 | 0.00 | 0.00 | 98 | 1010.1 |
| 20260507231703 | 52 | 69 | 2.0 | 3.0 | 0.00 | 0.00 | 0.00 | 98 | 1010.1 |
| 20260507231603 | 52 | 70 | 2.0 | 3.0 | 0.00 | 0.00 | 0.00 | 98 | 1010.1 |
| 20260507231503 | 52 | 71 | 2.0 | 3.0 | 0.00 | 0.00 | 0.00 | 98 | 1010.0 |
| 20260507231403 | 52 | 70 | 2.0 | 3.0 | 0.00 | 0.00 | 0.00 | 98 | 1010.4 |
| 20260507231303 | 52 | 70 | 2.0 | 3.0 | 0.00 | 0.00 | 0.00 | 98 | 1010.4 |
| 20260507231203 | 52 | 66 | 2.0 | 3.0 | 0.00 | 0.00 | 0.00 | 98 | 1010.0 |
| 20260507231124 | 52 | 65 | 2.0 | 3.0 | 0.00 | 0.00 | 0.00 | 98 | 1010.1 |
| 20260507231003 | 52 | 61 | 1.0 | 3.0 | 0.00 | 0.00 | 0.00 | 98 | 1010.1 |
| 20260507230903 | 52 | 59 | 1.0 | 3.0 | 0.00 | 0.00 | 0.00 | 98 | 1010.4 |
| 20260507230824 | 52 | 57 | 1.0 | 3.0 | 0.00 | 0.00 | 0.00 | 98 | 1010.1 |
| 20260507230724 | 52 | 46 | 1.0 | 2.0 | 0.00 | 0.00 | 0.00 | 98 | 1010.1 |
| 20260507230603 | 52 | 45 | 1.0 | 2.0 | 0.00 | 0.00 | 0.00 | 97 | 1010.1 |
| 20260507230503 | 52 | 45 | 1.0 | 2.0 | 0.00 | 0.00 | 0.00 | 98 | 1010.2 |
| 20260507230403 | 52 | 45 | 1.0 | 2.0 | 0.00 | 0.00 | 0.00 | 98 | 1010.0 |
| 20260507230324 | 52 | 45 | 1.0 | 2.0 | 0.00 | 0.00 | 0.00 | 98 | 1010.0 |
| 20260507230203 | 52 | 43 | 0.0 | 1.0 | 0.00 | 0.00 | 0.00 | 98 | 1010.2 |
| 20260507230003 | 51 | 42 | 0.0 | 1.0 | 0.00 | 0.00 | 0.00 | 98 | 1010.0 |
| 20260507225903 | 51 | 42 | 0.0 | 1.0 | 0.00 | 0.00 | 0.00 | 97 | 1010.2 |
| 20260507225803 | 51 | 42 | 0.0 | 1.0 | 0.00 | 0.00 | 0.00 | 97 | 1010.2 |
| 20260507225703 | 51 | 0 | 0.0 | 0.0 | 0.00 | 0.00 | 0.00 | 97 | 1010.2 |
| 20260507225603 | 51 | 0 | 0.0 | 0.0 | 0.00 | 0.00 | 0.00 | 97 | 1010.2 |
| 20260507225524 | 51 | 0 | 0.0 | 0.0 | 0.00 | 0.00 | 0.00 | 97 | 1010.2 |
| 20260507225403 | 51 | 0 | 0.0 | 0.0 | 0.00 | 0.00 | 0.00 | 97 | 1010.4 |
| 20260507225306 | 52 | 0 | 0.0 | 0.0 | 0.00 | 0.00 | 0.00 | 97 | 1010.0 |
| 20260507225203 | 52 | 0 | 0.0 | 0.0 | 0.00 | 0.00 | 0.00 | 97 | 1010.1 |
| 20260507225103 | 52 | 0 | 0.0 | 0.0 | 0.00 | 0.00 | 0.00 | 97 | 1010.2 |
| 20260507225003 | 52 | 0 | 0.0 | 0.0 | 0.00 | 0.00 | 0.00 | 97 | 1010.1 |
| 20260507224903 | 52 | 0 | 0.0 | 0.0 | 0.00 | 0.00 | 0.00 | 97 | 1010.1 |
| 20260507224803 | 52 | 0 | 0.0 | 0.0 | 0.00 | 0.00 | 0.00 | 97 | 1010.2 |
| 20260507224703 | 52 | 0 | 0.0 | 0.0 | 0.00 | 0.00 | 0.00 | 97 | 1010.4 |
| 20260507224624 | 52 | 0 | 0.0 | 0.0 | 0.00 | 0.00 | 0.00 | 97 | 1010.4 |
| 20260507224503 | 52 | 0 | 0.0 | 0.0 | 0.00 | 0.00 | 0.00 | 97 | 1010.5 |
| 20260507224403 | 51 | 0 | 0.0 | 0.0 | 0.00 | 0.00 | 0.00 | 97 | 1010.4 |
| 20260507224303 | 51 | 0 | 0.0 | 0.0 | 0.00 | 0.00 | 0.00 | 97 | 1010.2 |
| 20260507224203 | 51 | 0 | 0.0 | 0.0 | 0.00 | 0.00 | 0.00 | 97 | 1010.4 |
| 20260507224124 | 51 | 0 | 0.0 | 0.0 | 0.00 | 0.00 | 0.00 | 97 | 1010.4 |
| 20260507224003 | 51 | 0 | 0.0 | 0.0 | 0.00 | 0.00 | 0.00 | 97 | 1010.4 |
| 20260507223903 | 51 | 0 | 0.0 | 0.0 | 0.00 | 0.00 | 0.00 | 97 | 1010.4 |
| 20260507223803 | 52 | 0 | 0.0 | 0.0 | 0.00 | 0.00 | 0.00 | 97 | 1010.4 |
| 20260507223703 | 52 | 0 | 0.0 | 0.0 | 0.00 | 0.00 | 0.00 | 97 | 1010.5 |
| 20260507223603 | 52 | 0 | 0.0 | 0.0 | 0.00 | 0.00 | 0.00 | 97 | 1010.5 |
| 20260507223524 | 52 | 0 | 0.0 | 0.0 | 0.00 | 0.00 | 0.00 | 97 | 1010.6 |
| 20260507223403 | 52 | 0 | 0.0 | 0.0 | 0.00 | 0.00 | 0.00 | 97 | 1010.4 |
| 20260507223303 | 52 | 0 | 0.0 | 0.0 | 0.00 | 0.00 | 0.00 | 97 | 1010.4 |
| 20260507223203 | 52 | 0 | 0.0 | 0.0 | 0.00 | 0.00 | 0.00 | 97 | 1010.5 |
| 20260507223103 | 52 | 0 | 0.0 | 0.0 | 0.00 | 0.00 | 0.00 | 97 | 1010.4 |
| 20260507223003 | 52 | 0 | 0.0 | 0.0 | 0.00 | 0.00 | 0.00 | 97 | 1010.4 |
| 20260507222903 | 52 | 0 | 0.0 | 0.0 | 0.00 | 0.00 | 0.00 | 97 | 1010.5 |
| 20260507222803 | 52 | 0 | 0.0 | 0.0 | 0.00 | 0.00 | 0.00 | 97 | 1010.5 |
| 20260507222703 | 52 | 0 | 0.0 | 0.0 | 0.00 | 0.00 | 0.00 | 97 | 1010.6 |
| 20260507222603 | 52 | 0 | 0.0 | 0.0 | 0.00 | 0.00 | 0.00 | 97 | 1010.8 |
| 20260507222503 | 52 | 0 | 0.0 | 0.0 | 0.00 | 0.00 | 0.00 | 97 | 1010.7 |
| 20260507222403 | 52 | 0 | 0.0 | 0.0 | 0.00 | 0.00 | 0.00 | 97 | 1010.6 |
| 20260507222324 | 52 | 0 | 0.0 | 0.0 | 0.00 | 0.00 | 0.00 | 97 | 1010.7 |
| 20260507222203 | 52 | 0 | 0.0 | 0.0 | 0.00 | 0.00 | 0.00 | 97 | 1010.7 |
| 20260507222103 | 52 | 0 | 0.0 | 0.0 | 0.00 | 0.00 | 0.00 | 97 | 1010.5 |
| 20260507222003 | 52 | 37 | 0.0 | 1.0 | 0.00 | 0.00 | 0.00 | 97 | 1010.9 |
| 20260507221903 | 52 | 37 | 0.0 | 1.0 | 0.00 | 0.00 | 0.00 | 97 | 1010.9 |
| 20260507221803 | 52 | 37 | 0.0 | 1.0 | 0.00 | 0.00 | 0.00 | 97 | 1010.7 |
| 20260507221703 | 52 | 35 | 0.0 | 1.0 | 0.00 | 0.00 | 0.00 | 97 | 1010.8 |
| 20260507221624 | 52 | 35 | 0.0 | 1.0 | 0.00 | 0.00 | 0.00 | 96 | 1010.7 |
| 20260507221503 | 52 | 35 | 0.0 | 1.0 | 0.00 | 0.00 | 0.00 | 96 | 1010.8 |
| 20260507221403 | 52 | 35 | 0.0 | 1.0 | 0.00 | 0.00 | 0.00 | 96 | 1010.8 |
| 20260507221303 | 52 | 35 | 0.0 | 1.0 | 0.00 | 0.00 | 0.00 | 96 | 1010.7 |
| 20260507221203 | 53 | 35 | 0.0 | 1.0 | 0.00 | 0.00 | 0.00 | 96 | 1011.0 |
| 20260507221103 | 53 | 35 | 0.0 | 1.0 | 0.00 | 0.00 | 0.00 | 96 | 1010.7 |
| 20260507221003 | 53 | 35 | 0.0 | 1.0 | 0.00 | 0.00 | 0.00 | 96 | 1010.6 |
| 20260507220903 | 52 | 34 | 0.0 | 1.0 | 0.00 | 0.00 | 0.00 | 96 | 1010.7 |
| 20260507220803 | 52 | 31 | 0.0 | 1.0 | 0.00 | 0.00 | 0.00 | 96 | 1010.7 |
| 20260507220703 | 52 | 0 | 0.0 | 0.0 | 0.00 | 0.00 | 0.00 | 96 | 1010.8 |
| 20260507220624 | 52 | 0 | 0.0 | 0.0 | 0.00 | 0.00 | 0.00 | 96 | 1010.8 |
| 20260507220503 | 52 | 0 | 0.0 | 0.0 | 0.00 | 0.00 | 0.00 | 96 | 1010.7 |
| 20260507220403 | 52 | 0 | 0.0 | 0.0 | 0.00 | 0.00 | 0.00 | 96 | 1010.8 |
| 20260507220324 | 52 | 0 | 0.0 | 0.0 | 0.00 | 0.00 | 0.00 | 96 | 1010.7 |
| 20260507220203 | 52 | 0 | 0.0 | 0.0 | 0.00 | 0.00 | 0.00 | 96 | 1010.6 |
| 20260507220004 | 53 | 0 | 0.0 | 0.0 | 0.00 | 0.00 | 0.00 | 96 | 1010.7 |
| 20260507215903 | 53 | 0 | 0.0 | 0.0 | 0.00 | 0.00 | 0.00 | 96 | 1010.7 |
| 20260507215803 | 53 | 0 | 0.0 | 0.0 | 0.00 | 0.00 | 0.00 | 96 | 1010.6 |
| 20260507215703 | 53 | 0 | 0.0 | 0.0 | 0.00 | 0.00 | 0.00 | 96 | 1010.7 |
| 20260507215603 | 53 | 0 | 0.0 | 0.0 | 0.00 | 0.00 | 0.00 | 96 | 1010.7 |
| 20260507215503 | 53 | 0 | 0.0 | 0.0 | 0.00 | 0.00 | 0.00 | 96 | 1010.7 |
| 20260507215403 | 53 | 0 | 0.0 | 0.0 | 0.00 | 0.00 | 0.00 | 96 | 1010.7 |
| 20260507215306 | 53 | 0 | 0.0 | 0.0 | 0.00 | 0.00 | 0.00 | 96 | 1010.7 |
| 20260507215224 | 53 | 0 | 0.0 | 0.0 | 0.00 | 0.00 | 0.00 | 96 | 1010.8 |
| 20260507215103 | 53 | 0 | 0.0 | 0.0 | 0.00 | 0.00 | 0.00 | 96 | 1010.7 |
| 20260507215024 | 53 | 0 | 0.0 | 0.0 | 0.00 | 0.00 | 0.00 | 96 | 1010.7 |
| 20260507214903 | 53 | 0 | 0.0 | 0.0 | 0.00 | 0.00 | 0.00 | 96 | 1010.9 |
| 20260507214803 | 53 | 0 | 0.0 | 0.0 | 0.00 | 0.00 | 0.00 | 96 | 1010.5 |
| 20260507214703 | 53 | 0 | 0.0 | 0.0 | 0.00 | 0.00 | 0.00 | 96 | 1010.7 |
| 20260507214603 | 53 | 0 | 0.0 | 0.0 | 0.00 | 0.00 | 0.00 | 96 | 1010.7 |
| 20260507214503 | 54 | 24 | 0.0 | 1.0 | 0.00 | 0.00 | 0.00 | 96 | 1010.6 |
| 20260507214403 | 54 | 24 | 0.0 | 1.0 | 0.00 | 0.00 | 0.00 | 96 | 1010.6 |
| 20260507214303 | 54 | 24 | 0.0 | 1.0 | 0.00 | 0.00 | 0.00 | 96 | 1010.6 |
| 20260507214203 | 54 | 24 | 0.0 | 1.0 | 0.00 | 0.00 | 0.00 | 96 | 1010.8 |
| 20260507214103 | 54 | 24 | 0.0 | 1.0 | 0.00 | 0.00 | 0.00 | 96 | 1010.8 |
| 20260507214003 | 54 | 24 | 0.0 | 1.0 | 0.00 | 0.00 | 0.00 | 96 | 1010.8 |
| 20260507213903 | 54 | 24 | 0.0 | 1.0 | 0.00 | 0.00 | 0.00 | 96 | 1010.9 |
| 20260507213803 | 54 | 24 | 0.0 | 1.0 | 0.00 | 0.00 | 0.00 | 96 | 1010.8 |
| 20260507213703 | 54 | 24 | 0.0 | 1.0 | 0.00 | 0.00 | 0.00 | 96 | 1010.8 |
| 20260507213603 | 54 | 24 | 0.0 | 1.0 | 0.00 | 0.00 | 0.00 | 96 | 1010.8 |
| 20260507213503 | 54 | 24 | 0.0 | 1.0 | 0.00 | 0.00 | 0.00 | 96 | 1010.6 |
| 20260507213403 | 54 | 0 | 0.0 | 0.0 | 0.00 | 0.00 | 0.00 | 96 | 1010.8 |
| 20260507213303 | 54 | 0 | 0.0 | 0.0 | 0.00 | 0.00 | 0.00 | 96 | 1010.7 |
| 20260507213203 | 54 | 0 | 0.0 | 0.0 | 0.00 | 0.00 | 0.00 | 95 | 1010.7 |
| 20260507213124 | 54 | 0 | 0.0 | 0.0 | 0.00 | 0.00 | 0.00 | 95 | 1010.7 |
| 20260507213024 | 54 | 0 | 0.0 | 0.0 | 0.00 | 0.00 | 0.00 | 95 | 1010.6 |
| 20260507212905 | 54 | 0 | 0.0 | 0.0 | 0.00 | 0.00 | 0.00 | 95 | 1010.7 |
| 20260507212803 | 54 | 0 | 0.0 | 0.0 | 0.00 | 0.00 | 0.00 | 95 | 1010.7 |
| 20260507212703 | 54 | 0 | 0.0 | 0.0 | 0.00 | 0.00 | 0.00 | 95 | 1010.8 |
| 20260507212603 | 54 | 0 | 0.0 | 0.0 | 0.00 | 0.00 | 0.00 | 95 | 1011.0 |
| 20260507212503 | 54 | 0 | 0.0 | 0.0 | 0.00 | 0.00 | 0.00 | 95 | 1010.7 |
| 20260507212403 | 54 | 0 | 0.0 | 0.0 | 0.00 | 0.00 | 0.00 | 95 | 1010.7 |
| 20260507212324 | 54 | 0 | 0.0 | 0.0 | 0.00 | 0.00 | 0.00 | 95 | 1010.7 |
| 20260507212224 | 54 | 0 | 0.0 | 0.0 | 0.00 | 0.00 | 0.00 | 95 | 1010.7 |
| 20260507212103 | 54 | 0 | 0.0 | 0.0 | 0.00 | 0.00 | 0.00 | 95 | 1010.6 |
| 20260507212003 | 54 | 0 | 0.0 | 0.0 | 0.00 | 0.00 | 0.00 | 95 | 1010.7 |
| 20260507211903 | 54 | 0 | 0.0 | 0.0 | 0.00 | 0.00 | 0.00 | 95 | 1010.7 |
| 20260507211803 | 54 | 0 | 0.0 | 0.0 | 0.00 | 0.00 | 0.00 | 95 | 1010.6 |
| 20260507211703 | 54 | 0 | 0.0 | 0.0 | 0.00 | 0.00 | 0.00 | 95 | 1010.6 |
| 20260507211603 | 54 | 0 | 0.0 | 0.0 | 0.00 | 0.00 | 0.00 | 95 | 1010.8 |
| 20260507211503 | 54 | 0 | 0.0 | 0.0 | 0.00 | 0.00 | 0.00 | 95 | 1010.8 |
| 20260507211403 | 54 | 0 | 0.0 | 0.0 | 0.00 | 0.00 | 0.00 | 95 | 1010.7 |
| 20260507211303 | 54 | 0 | 0.0 | 0.0 | 0.00 | 0.00 | 0.00 | 95 | 1010.7 |
| 20260507211203 | 54 | 0 | 0.0 | 0.0 | 0.00 | 0.00 | 0.00 | 95 | 1010.6 |
| 20260507211103 | 54 | 0 | 0.0 | 0.0 | 0.00 | 0.00 | 0.00 | 95 | 1010.7 |
| 20260507211003 | 54 | 0 | 0.0 | 0.0 | 0.00 | 0.00 | 0.00 | 95 | 1010.8 |
| 20260507210903 | 54 | 0 | 0.0 | 0.0 | 0.00 | 0.00 | 0.00 | 95 | 1010.6 |
| 20260507210824 | 54 | 0 | 0.0 | 0.0 | 0.00 | 0.00 | 0.00 | 95 | 1010.6 |
| 20260507210724 | 54 | 0 | 0.0 | 0.0 | 0.00 | 0.00 | 0.00 | 94 | 1010.5 |
| 20260507210603 | 54 | 0 | 0.0 | 0.0 | 0.00 | 0.00 | 0.00 | 94 | 1010.4 |
| 20260507210503 | 54 | 0 | 0.0 | 0.0 | 0.00 | 0.00 | 0.00 | 94 | 1010.6 |
| 20260507210403 | 54 | 0 | 0.0 | 0.0 | 0.00 | 0.00 | 0.00 | 94 | 1010.4 |
| 20260507210303 | 54 | 0 | 0.0 | 0.0 | 0.00 | 0.00 | 0.00 | 94 | 1010.6 |
| 20260507210203 | 54 | 0 | 0.0 | 0.0 | 0.00 | 0.00 | 0.00 | 94 | 1010.7 |
| 20260507210003 | 55 | 0 | 0.0 | 0.0 | 0.00 | 0.00 | 0.00 | 94 | 1010.5 |
| 20260507205903 | 55 | 0 | 0.0 | 0.0 | 0.00 | 0.00 | 0.00 | 94 | 1010.4 |
| 20260507205803 | 55 | 0 | 0.0 | 0.0 | 0.00 | 0.00 | 0.00 | 94 | 1010.5 |
| 20260507205703 | 55 | 24 | 0.0 | 1.0 | 0.00 | 0.00 | 0.00 | 94 | 1010.4 |
| 20260507205603 | 55 | 24 | 0.0 | 1.0 | 0.00 | 0.00 | 0.00 | 94 | 1010.4 |
| 20260507205503 | 55 | 24 | 0.0 | 1.0 | 0.00 | 0.00 | 0.00 | 94 | 1010.4 |
| 20260507205403 | 54 | 24 | 0.0 | 1.0 | 0.00 | 0.00 | 0.00 | 94 | 1010.4 |
| 20260507205306 | 54 | 24 | 0.0 | 1.0 | 0.00 | 0.00 | 0.00 | 94 | 1010.2 |
| 20260507205203 | 54 | 24 | 0.0 | 1.0 | 0.00 | 0.00 | 0.00 | 94 | 1010.2 |
| 20260507205103 | 55 | 24 | 0.0 | 1.0 | 0.00 | 0.00 | 0.00 | 94 | 1010.5 |
| 20260507205003 | 55 | 24 | 0.0 | 1.0 | 0.00 | 0.00 | 0.00 | 94 | 1010.4 |
| 20260507204903 | 55 | 24 | 0.0 | 1.0 | 0.00 | 0.00 | 0.00 | 94 | 1010.2 |
| 20260507204803 | 55 | 24 | 0.0 | 1.0 | 0.00 | 0.00 | 0.00 | 94 | 1010.2 |
| 20260507204703 | 55 | 24 | 0.0 | 1.0 | 0.00 | 0.00 | 0.00 | 94 | 1010.5 |
| 20260507204603 | 55 | 24 | 0.0 | 1.0 | 0.00 | 0.00 | 0.00 | 94 | 1010.1 |
| 20260507204524 | 55 | 0 | 0.0 | 0.0 | 0.00 | 0.00 | 0.00 | 94 | 1010.4 |
| 20260507204403 | 55 | 0 | 0.0 | 0.0 | 0.00 | 0.00 | 0.00 | 94 | 1010.5 |
| 20260507204303 | 55 | 0 | 0.0 | 0.0 | 0.00 | 0.00 | 0.00 | 94 | 1010.2 |
| 20260507204203 | 55 | 0 | 0.0 | 0.0 | 0.00 | 0.00 | 0.00 | 94 | 1010.4 |
| 20260507204103 | 55 | 0 | 0.0 | 0.0 | 0.00 | 0.00 | 0.00 | 93 | 1010.4 |
| 20260507204024 | 55 | 0 | 0.0 | 0.0 | 0.00 | 0.00 | 0.00 | 93 | 1010.4 |
| 20260507203903 | 55 | 0 | 0.0 | 0.0 | 0.00 | 0.00 | 0.00 | 93 | 1010.2 |
| 20260507203803 | 55 | 0 | 0.0 | 0.0 | 0.00 | 0.00 | 0.00 | 93 | 1010.2 |
| 20260507203703 | 55 | 0 | 0.0 | 0.0 | 0.00 | 0.00 | 0.00 | 93 | 1010.2 |
| 20260507203624 | 55 | 0 | 0.0 | 0.0 | 0.00 | 0.00 | 0.00 | 93 | 1010.2 |
| 20260507203503 | 55 | 0 | 0.0 | 0.0 | 0.00 | 0.00 | 0.00 | 93 | 1010.4 |
| 20260507203403 | 55 | 0 | 0.0 | 0.0 | 0.00 | 0.00 | 0.00 | 93 | 1010.4 |
| 20260507203324 | 55 | 0 | 0.0 | 0.0 | 0.00 | 0.00 | 0.00 | 93 | 1010.2 |
| 20260507203203 | 54 | 0 | 0.0 | 0.0 | 0.00 | 0.00 | 0.00 | 93 | 1010.2 |
| 20260507203103 | 54 | 0 | 0.0 | 0.0 | 0.00 | 0.00 | 0.00 | 93 | 1010.4 |
| 20260507203024 | 54 | 0 | 0.0 | 0.0 | 0.00 | 0.00 | 0.00 | 93 | 1010.2 |
| 20260507202924 | 54 | 0 | 0.0 | 0.0 | 0.00 | 0.00 | 0.00 | 93 | 1010.0 |
| 20260507202803 | 55 | 0 | 0.0 | 0.0 | 0.00 | 0.00 | 0.00 | 93 | 1010.1 |
| 20260507202703 | 55 | 0 | 0.0 | 0.0 | 0.00 | 0.00 | 0.00 | 93 | 1010.1 |
| 20260507202624 | 55 | 24 | 0.0 | 1.0 | 0.00 | 0.00 | 0.00 | 93 | 1010.2 |
| 20260507202503 | 55 | 24 | 0.0 | 1.0 | 0.00 | 0.00 | 0.00 | 93 | 1010.2 |
| 20260507202424 | 55 | 24 | 0.0 | 1.0 | 0.00 | 0.00 | 0.00 | 93 | 1010.2 |
| 20260507202306 | 55 | 24 | 0.0 | 1.0 | 0.00 | 0.00 | 0.00 | 92 | 1010.0 |
| 20260507202224 | 55 | 24 | 0.0 | 1.0 | 0.00 | 0.00 | 0.00 | 92 | 1010.0 |
| 20260507202124 | 55 | 24 | 0.0 | 1.0 | 0.00 | 0.00 | 0.00 | 92 | 1010.0 |
| 20260507202003 | 55 | 24 | 0.0 | 1.0 | 0.00 | 0.00 | 0.00 | 92 | 1010.0 |
| 20260507201903 | 55 | 24 | 0.0 | 1.0 | 0.00 | 0.00 | 0.00 | 92 | 1010.1 |
| 20260507201803 | 55 | 24 | 0.0 | 1.0 | 0.00 | 0.00 | 0.00 | 92 | 1010.1 |
| 20260507201724 | 55 | 24 | 0.0 | 1.0 | 0.00 | 0.00 | 0.00 | 92 | 1010.1 |
| 20260507201624 | 55 | 24 | 0.0 | 1.0 | 0.00 | 0.00 | 0.00 | 92 | 1010.2 |
| 20260507201503 | 55 | 0 | 0.0 | 0.0 | 0.00 | 0.00 | 0.00 | 92 | 1010.0 |
| 20260507201403 | 55 | 0 | 0.0 | 0.0 | 0.00 | 0.00 | 0.00 | 92 | 1009.9 |
| 20260507201324 | 55 | 0 | 0.0 | 0.0 | 0.00 | 0.00 | 0.00 | 92 | 1010.1 |
| 20260507201224 | 55 | 0 | 0.0 | 0.0 | 0.00 | 0.00 | 0.00 | 92 | 1010.0 |
| 20260507201103 | 55 | 0 | 0.0 | 0.0 | 0.00 | 0.00 | 0.00 | 92 | 1010.0 |
| 20260507201003 | 55 | 0 | 0.0 | 0.0 | 0.00 | 0.00 | 0.00 | 91 | 1009.9 |
| 20260507200903 | 55 | 0 | 0.0 | 0.0 | 0.00 | 0.00 | 0.00 | 91 | 1010.1 |
| 20260507200803 | 55 | 0 | 0.0 | 0.0 | 0.00 | 0.00 | 0.00 | 91 | 1010.2 |
| 20260507200703 | 55 | 0 | 0.0 | 0.0 | 0.00 | 0.00 | 0.00 | 91 | 1010.1 |
| 20260507200603 | 55 | 0 | 0.0 | 0.0 | 0.00 | 0.00 | 0.00 | 91 | 1010.0 |
| 20260507200503 | 55 | 0 | 0.0 | 0.0 | 0.00 | 0.00 | 0.00 | 91 | 1010.1 |
| 20260507200403 | 55 | 0 | 0.0 | 0.0 | 0.00 | 0.00 | 0.00 | 91 | 1010.0 |
| 20260507200303 | 55 | 0 | 0.0 | 0.0 | 0.00 | 0.00 | 0.00 | 91 | 1010.0 |
| 20260507200203 | 55 | 0 | 0.0 | 0.0 | 0.00 | 0.00 | 0.00 | 90 | 1010.0 |
| 20260507200003 | 55 | 0 | 0.0 | 0.0 | 0.00 | 0.00 | 0.00 | 90 | 1010.1 |
| 20260507195903 | 55 | 0 | 0.0 | 0.0 | 0.00 | 0.00 | 0.00 | 90 | 1010.1 |
| 20260507195803 | 56 | 0 | 0.0 | 0.0 | 0.00 | 0.00 | 0.00 | 90 | 1009.9 |
| 20260507195703 | 56 | 0 | 0.0 | 0.0 | 0.00 | 0.00 | 0.00 | 90 | 1010.0 |
| 20260507195603 | 56 | 0 | 0.0 | 0.0 | 0.00 | 0.00 | 0.00 | 90 | 1009.7 |
| 20260507195503 | 56 | 0 | 0.0 | 0.0 | 0.00 | 0.00 | 0.00 | 90 | 1010.0 |
| 20260507195403 | 56 | 0 | 0.0 | 0.0 | 0.00 | 0.00 | 0.00 | 90 | 1009.7 |
| 20260507195305 | 56 | 0 | 0.0 | 0.0 | 0.00 | 0.00 | 0.00 | 90 | 1009.8 |
| 20260507195203 | 56 | 0 | 0.0 | 0.0 | 0.00 | 0.00 | 0.00 | 90 | 1009.8 |
| 20260507195124 | 56 | 0 | 0.0 | 0.0 | 0.00 | 0.00 | 0.00 | 90 | 1009.9 |
| 20260507195003 | 56 | 0 | 0.0 | 0.0 | 0.00 | 0.00 | 0.00 | 90 | 1009.7 |
| 20260507194903 | 56 | 0 | 0.0 | 0.0 | 0.00 | 0.00 | 0.00 | 90 | 1009.8 |
| 20260507194824 | 56 | 0 | 0.0 | 0.0 | 0.00 | 0.00 | 0.00 | 89 | 1009.8 |
| 20260507194724 | 56 | 0 | 0.0 | 0.0 | 0.00 | 0.00 | 0.00 | 89 | 1009.8 |
| 20260507192703 | 58 | 23 | 0.0 | 1.0 | 0.00 | 0.00 | 0.00 | 88 | 1010.1 |
| 20260507192603 | 58 | 23 | 0.0 | 1.0 | 0.00 | 0.00 | 0.00 | 88 | 1010.1 |
| 20260507192503 | 58 | 23 | 0.0 | 1.0 | 0.00 | 0.00 | 0.00 | 88 | 1010.1 |
| 20260507192403 | 58 | 23 | 0.0 | 1.0 | 0.00 | 0.00 | 0.00 | 88 | 1009.8 |
| 20260507192306 | 58 | 19 | 0.0 | 2.0 | 0.00 | 0.00 | 0.00 | 88 | 1009.9 |
| 20260507192203 | 58 | 19 | 0.0 | 2.0 | 0.00 | 0.00 | 0.00 | 88 | 1009.9 |
| 20260507192103 | 58 | 19 | 0.0 | 2.0 | 0.00 | 0.00 | 0.00 | 88 | 1009.9 |
| 20260507192003 | 58 | 20 | 0.0 | 2.0 | 0.00 | 0.00 | 0.00 | 87 | 1009.9 |
| 20260507191924 | 58 | 20 | 0.0 | 2.0 | 0.00 | 0.00 | 0.00 | 87 | 1009.9 |
| 20260507191824 | 58 | 20 | 0.0 | 2.0 | 0.00 | 0.00 | 0.00 | 87 | 1009.9 |
| 20260507191703 | 58 | 23 | 0.0 | 2.0 | 0.00 | 0.00 | 0.00 | 87 | 1009.8 |
| 20260507191624 | 58 | 25 | 0.0 | 2.0 | 0.00 | 0.00 | 0.00 | 87 | 1009.7 |
| 20260507191503 | 58 | 28 | 0.0 | 2.0 | 0.00 | 0.00 | 0.00 | 87 | 1009.8 |
| 20260507191424 | 58 | 29 | 0.0 | 2.0 | 0.00 | 0.00 | 0.00 | 87 | 1009.9 |
| 20260507191303 | 58 | 30 | 0.0 | 2.0 | 0.00 | 0.00 | 0.00 | 87 | 1009.9 |
| 20260507191203 | 58 | 37 | 0.0 | 1.0 | 0.00 | 0.00 | 0.00 | 87 | 1009.8 |
| 20260507191103 | 58 | 37 | 0.0 | 1.0 | 0.00 | 0.00 | 0.00 | 87 | 1009.8 |
| 20260507191003 | 58 | 37 | 0.0 | 1.0 | 0.00 | 0.00 | 0.00 | 87 | 1009.7 |
| 20260507190903 | 58 | 39 | 0.0 | 1.0 | 0.00 | 0.00 | 0.00 | 87 | 1009.8 |
| 20260507190803 | 58 | 39 | 1.0 | 1.0 | 0.00 | 0.00 | 0.00 | 87 | 1010.0 |
| 20260507190703 | 58 | 39 | 1.0 | 1.0 | 0.00 | 0.00 | 0.00 | 87 | 1010.0 |
| 20260507190603 | 58 | 37 | 1.0 | 1.0 | 0.00 | 0.00 | 0.00 | 87 | 1009.8 |
| 20260507190503 | 58 | 37 | 1.0 | 1.0 | 0.00 | 0.00 | 0.00 | 87 | 1009.8 |
| 20260507190403 | 58 | 42 | 1.0 | 2.0 | 0.00 | 0.00 | 0.00 | 86 | 1009.9 |
| 20260507190324 | 59 | 43 | 1.0 | 2.0 | 0.00 | 0.00 | 0.00 | 86 | 1009.8 |
| 20260507190203 | 59 | 45 | 1.0 | 2.0 | 0.00 | 0.00 | 0.00 | 86 | 1009.9 |
| 20260507190004 | 59 | 48 | 1.0 | 2.0 | 0.00 | 0.00 | 0.00 | 86 | 1009.9 |
| 20260507185903 | 59 | 48 | 1.0 | 2.0 | 0.00 | 0.00 | 0.00 | 86 | 1009.9 |
| 20260507185824 | 59 | 50 | 1.0 | 2.0 | 0.00 | 0.00 | 0.00 | 86 | 1009.9 |
| 20260507185703 | 59 | 51 | 1.0 | 2.0 | 0.00 | 0.00 | 0.00 | 86 | 1009.9 |
| 20260507185603 | 59 | 53 | 1.0 | 2.0 | 0.00 | 0.00 | 0.00 | 86 | 1009.9 |
| 20260507185503 | 59 | 55 | 1.0 | 2.0 | 0.00 | 0.00 | 0.00 | 86 | 1009.9 |
| 20260507185403 | 59 | 56 | 1.0 | 3.0 | 0.00 | 0.00 | 0.00 | 86 | 1010.0 |
| 20260507185305 | 59 | 47 | 1.0 | 3.0 | 0.00 | 0.00 | 0.00 | 86 | 1009.8 |
| 20260507185203 | 59 | 47 | 1.0 | 3.0 | 0.00 | 0.00 | 0.00 | 86 | 1009.8 |
| 20260507185103 | 59 | 34 | 1.0 | 3.0 | 0.00 | 0.00 | 0.00 | 86 | 1009.9 |
| 20260507185003 | 60 | 25 | 1.0 | 3.0 | 0.00 | 0.00 | 0.00 | 85 | 1009.9 |
| 20260507184903 | 60 | 13 | 1.0 | 3.0 | 0.00 | 0.00 | 0.00 | 85 | 1010.0 |
| 20260507184803 | 60 | 7 | 1.0 | 3.0 | 0.00 | 0.00 | 0.00 | 85 | 1009.8 |
| 20260507184703 | 60 | 337 | 1.0 | 3.0 | 0.00 | 0.00 | 0.00 | 85 | 1009.8 |
| 20260507184624 | 60 | 328 | 1.0 | 3.0 | 0.00 | 0.00 | 0.00 | 85 | 1009.8 |
| 20260507184503 | 60 | 319 | 1.0 | 3.0 | 0.00 | 0.00 | 0.00 | 84 | 1009.9 |
| 20260507184404 | 60 | 314 | 1.0 | 3.0 | 0.00 | 0.00 | 0.00 | 84 | 1010.0 |
| 20260507184303 | 61 | 298 | 1.0 | 2.0 | 0.00 | 0.00 | 0.00 | 83 | 1009.7 |
| 20260507184224 | 61 | 298 | 1.0 | 2.0 | 0.00 | 0.00 | 0.00 | 83 | 1009.9 |
| 20260507184103 | 61 | 298 | 1.0 | 2.0 | 0.00 | 0.00 | 0.00 | 82 | 1009.7 |
| 20260507184003 | 61 | 298 | 1.0 | 2.0 | 0.00 | 0.00 | 0.00 | 82 | 1009.8 |
| 20260507183903 | 61 | 298 | 1.0 | 2.0 | 0.00 | 0.00 | 0.00 | 82 | 1009.9 |
| 20260507183824 | 61 | 298 | 1.0 | 2.0 | 0.00 | 0.00 | 0.00 | 82 | 1009.9 |
| 20260507183703 | 62 | 298 | 1.0 | 2.0 | 0.00 | 0.00 | 0.00 | 80 | 1009.8 |
| 20260507183624 | 62 | 298 | 1.0 | 2.0 | 0.00 | 0.00 | 0.00 | 80 | 1009.8 |
| 20260507183103 | 62 | 299 | 1.0 | 2.0 | 0.00 | 0.00 | 0.00 | 78 | 1009.8 |
| 20260507183024 | 62 | 299 | 1.0 | 2.0 | 0.00 | 0.00 | 0.00 | 78 | 1009.8 |
| 20260507182903 | 62 | 299 | 0.0 | 1.0 | 0.00 | 0.00 | 0.00 | 78 | 1009.8 |
| 20260507182803 | 62 | 299 | 0.0 | 1.0 | 0.00 | 0.00 | 0.00 | 78 | 1009.8 |
| 20260507182703 | 62 | 299 | 0.0 | 1.0 | 0.00 | 0.00 | 0.00 | 78 | 1009.8 |
| 20260507182603 | 62 | 299 | 1.0 | 1.0 | 0.00 | 0.00 | 0.00 | 77 | 1009.8 |
| 20260507182503 | 62 | 299 | 1.0 | 1.0 | 0.00 | 0.00 | 0.00 | 77 | 1009.8 |
| 20260507182424 | 62 | 299 | 1.0 | 2.0 | 0.00 | 0.00 | 0.00 | 77 | 1009.9 |
| 20260507182306 | 62 | 299 | 1.0 | 2.0 | 0.00 | 0.00 | 0.00 | 78 | 1009.6 |
| 20260507182203 | 62 | 299 | 1.0 | 2.0 | 0.00 | 0.00 | 0.00 | 78 | 1009.8 |
| 20260507182103 | 62 | 299 | 1.0 | 2.0 | 0.00 | 0.00 | 0.00 | 78 | 1009.8 |
| 20260507182003 | 62 | 299 | 1.0 | 2.0 | 0.00 | 0.00 | 0.00 | 78 | 1009.9 |
| 20260507181903 | 62 | 299 | 1.0 | 2.0 | 0.00 | 0.00 | 0.00 | 78 | 1009.8 |
| 20260507181803 | 62 | 299 | 1.0 | 2.0 | 0.00 | 0.00 | 0.00 | 79 | 1009.7 |
| 20260507181703 | 62 | 299 | 1.0 | 2.0 | 0.00 | 0.00 | 0.00 | 78 | 1009.7 |
| 20260507181603 | 62 | 299 | 1.0 | 2.0 | 0.00 | 0.00 | 0.00 | 78 | 1009.9 |
| 20260507181503 | 62 | 299 | 1.0 | 2.0 | 0.00 | 0.00 | 0.00 | 78 | 1009.9 |
| 20260507181403 | 62 | 299 | 1.0 | 2.0 | 0.00 | 0.00 | 0.00 | 78 | 1009.7 |
| 20260507181324 | 62 | 299 | 1.0 | 2.0 | 0.00 | 0.00 | 0.00 | 78 | 1009.7 |
| 20260507181224 | 62 | 298 | 1.0 | 2.0 | 0.00 | 0.00 | 0.00 | 77 | 1009.7 |
| 20260507181103 | 62 | 298 | 1.0 | 2.0 | 0.00 | 0.00 | 0.00 | 77 | 1009.8 |
| 20260507181004 | 62 | 298 | 1.0 | 2.0 | 0.00 | 0.00 | 0.00 | 77 | 1009.8 |
| 20260507180903 | 62 | 298 | 1.0 | 2.0 | 0.00 | 0.00 | 0.00 | 77 | 1009.8 |
| 20260507180824 | 62 | 298 | 1.0 | 2.0 | 0.00 | 0.00 | 0.00 | 76 | 1009.8 |
| 20260507180703 | 63 | 298 | 1.0 | 2.0 | 0.00 | 0.00 | 0.00 | 76 | 1009.7 |
| 20260507180603 | 63 | 298 | 1.0 | 2.0 | 0.00 | 0.00 | 0.00 | 75 | 1009.7 |
| 20260507180524 | 64 | 298 | 0.0 | 2.0 | 0.00 | 0.00 | 0.00 | 75 | 1009.7 |
| 20260507180424 | 64 | 299 | 0.0 | 2.0 | 0.00 | 0.00 | 0.00 | 74 | 1009.8 |
| 20260507180303 | 64 | 299 | 0.0 | 2.0 | 0.00 | 0.00 | 0.00 | 73 | 1009.8 |
| 20260507180203 | 64 | 299 | 1.0 | 2.0 | 0.00 | 0.00 | 0.00 | 75 | 1009.6 |
| 20260507180004 | 64 | 299 | 1.0 | 2.0 | 0.00 | 0.00 | 0.00 | 75 | 1009.8 |
| 20260507175924 | 64 | 299 | 1.0 | 2.0 | 0.00 | 0.00 | 0.00 | 75 | 1009.8 |
| 20260507175803 | 64 | 299 | 1.0 | 2.0 | 0.00 | 0.00 | 0.00 | 76 | 1009.8 |
| 20260507175703 | 64 | 299 | 1.0 | 2.0 | 0.00 | 0.00 | 0.00 | 75 | 1009.7 |
| 20260507175603 | 63 | 299 | 1.0 | 2.0 | 0.00 | 0.00 | 0.00 | 75 | 1009.8 |
| 20260507175503 | 63 | 299 | 1.0 | 2.0 | 0.00 | 0.00 | 0.00 | 75 | 1009.8 |
| 20260507175403 | 64 | 299 | 1.0 | 2.0 | 0.00 | 0.00 | 0.00 | 75 | 1009.7 |
| 20260507175306 | 63 | 299 | 1.0 | 3.0 | 0.00 | 0.00 | 0.00 | 76 | 1009.8 |
| 20260507175203 | 63 | 299 | 1.0 | 3.0 | 0.00 | 0.00 | 0.00 | 76 | 1009.8 |
| 20260507175103 | 63 | 293 | 1.0 | 3.0 | 0.00 | 0.00 | 0.00 | 76 | 1009.5 |
| 20260507175003 | 63 | 290 | 1.0 | 3.0 | 0.00 | 0.00 | 0.00 | 77 | 1009.9 |
| 20260507174903 | 63 | 288 | 1.0 | 3.0 | 0.00 | 0.00 | 0.00 | 78 | 1009.6 |
| 20260507174503 | 62 | 289 | 2.0 | 4.0 | 0.00 | 0.00 | 0.00 | 78 | 1009.8 |
| 20260507174403 | 62 | 289 | 2.0 | 4.0 | 0.00 | 0.00 | 0.00 | 78 | 1009.8 |
| 20260507174303 | 62 | 293 | 2.0 | 4.0 | 0.00 | 0.00 | 0.00 | 77 | 1009.6 |
| 20260507174203 | 63 | 295 | 2.0 | 4.0 | 0.00 | 0.00 | 0.00 | 77 | 1009.6 |
| 20260507174103 | 63 | 295 | 2.0 | 4.0 | 0.00 | 0.00 | 0.00 | 77 | 1009.6 |
| 20260507174003 | 63 | 299 | 2.0 | 4.0 | 0.00 | 0.00 | 0.00 | 77 | 1009.7 |
| 20260507173904 | 63 | 301 | 1.0 | 4.0 | 0.00 | 0.00 | 0.00 | 77 | 1009.5 |
| 20260507173824 | 63 | 301 | 2.0 | 4.0 | 0.00 | 0.00 | 0.00 | 77 | 1009.6 |
| 20260507173724 | 62 | 299 | 2.0 | 4.0 | 0.00 | 0.00 | 0.00 | 77 | 1009.6 |
| 20260507173603 | 62 | 299 | 2.0 | 4.0 | 0.00 | 0.00 | 0.00 | 78 | 1009.6 |
| 20260507173503 | 62 | 298 | 2.0 | 4.0 | 0.00 | 0.00 | 0.00 | 78 | 1009.6 |
| 20260507173403 | 62 | 298 | 2.0 | 4.0 | 0.00 | 0.00 | 0.00 | 78 | 1009.7 |
| 20260507173303 | 62 | 292 | 1.0 | 4.0 | 0.00 | 0.00 | 0.00 | 78 | 1009.6 |
| 20260507173203 | 62 | 288 | 1.0 | 4.0 | 0.00 | 0.00 | 0.00 | 78 | 1009.4 |
| 20260507173103 | 62 | 282 | 1.0 | 4.0 | 0.00 | 0.00 | 0.00 | 79 | 1009.5 |
| 20260507173003 | 62 | 279 | 1.0 | 4.0 | 0.00 | 0.00 | 0.00 | 78 | 1009.6 |
| 20260507172903 | 62 | 282 | 2.0 | 4.0 | 0.00 | 0.00 | 0.00 | 78 | 1009.6 |
| 20260507172803 | 62 | 285 | 2.0 | 4.0 | 0.00 | 0.00 | 0.00 | 78 | 1009.6 |
| 20260507172703 | 62 | 292 | 2.0 | 4.0 | 0.00 | 0.00 | 0.00 | 78 | 1009.6 |
| 20260507172624 | 62 | 292 | 2.0 | 4.0 | 0.00 | 0.00 | 0.00 | 78 | 1009.6 |
| 20260507172503 | 62 | 301 | 2.0 | 4.0 | 0.00 | 0.00 | 0.00 | 77 | 1009.4 |
| 20260507172403 | 62 | 310 | 2.0 | 4.0 | 0.00 | 0.00 | 0.00 | 77 | 1009.5 |
| 20260507172307 | 62 | 319 | 2.0 | 4.0 | 0.00 | 0.00 | 0.00 | 77 | 1009.4 |
| 20260507172204 | 62 | 328 | 3.0 | 6.0 | 0.00 | 0.00 | 0.00 | 77 | 1009.5 |
| 20260507172103 | 63 | 333 | 3.0 | 6.0 | 0.00 | 0.00 | 0.00 | 76 | 1009.5 |
| 20260507172003 | 63 | 333 | 3.0 | 6.0 | 0.00 | 0.00 | 0.00 | 76 | 1009.5 |
| 20260507171903 | 63 | 343 | 3.0 | 6.0 | 0.00 | 0.00 | 0.00 | 76 | 1009.4 |
| 20260507171803 | 63 | 349 | 3.0 | 6.0 | 0.00 | 0.00 | 0.00 | 76 | 1009.5 |
| 20260507171703 | 63 | 348 | 3.0 | 6.0 | 0.00 | 0.00 | 0.00 | 76 | 1009.4 |
| 20260507171624 | 63 | 348 | 3.0 | 6.0 | 0.00 | 0.00 | 0.00 | 76 | 1009.3 |
| 20260507171503 | 63 | 354 | 2.0 | 6.0 | 0.00 | 0.00 | 0.00 | 76 | 1009.5 |
| 20260507171403 | 63 | 355 | 2.0 | 6.0 | 0.00 | 0.00 | 0.00 | 75 | 1009.4 |
| 20260507171303 | 63 | 354 | 2.0 | 6.0 | 0.00 | 0.00 | 0.00 | 76 | 1009.4 |
| 20260507171203 | 63 | 351 | 2.0 | 6.0 | 0.00 | 0.00 | 0.00 | 75 | 1009.3 |
| 20260507171124 | 63 | 342 | 2.0 | 3.0 | 0.00 | 0.00 | 0.00 | 76 | 1009.4 |
| 20260507171003 | 63 | 340 | 2.0 | 3.0 | 0.00 | 0.00 | 0.00 | 76 | 1009.3 |
| 20260507170903 | 63 | 340 | 2.0 | 4.0 | 0.00 | 0.00 | 0.00 | 77 | 1009.2 |
| 20260507170804 | 63 | 330 | 2.0 | 4.0 | 0.00 | 0.00 | 0.00 | 76 | 1009.4 |
| 20260507170703 | 63 | 333 | 2.0 | 4.0 | 0.00 | 0.00 | 0.00 | 76 | 1009.4 |
| 20260507170603 | 64 | 328 | 2.0 | 4.0 | 0.00 | 0.00 | 0.00 | 75 | 1009.4 |
| 20260507170503 | 64 | 316 | 2.0 | 4.0 | 0.00 | 0.00 | 0.00 | 74 | 1009.3 |
| 20260507170403 | 64 | 304 | 2.0 | 4.0 | 0.00 | 0.00 | 0.00 | 74 | 1009.4 |
| 20260507170303 | 64 | 304 | 2.0 | 4.0 | 0.00 | 0.00 | 0.00 | 74 | 1009.4 |
| 20260507170203 | 64 | 304 | 2.0 | 4.0 | 0.00 | 0.00 | 0.00 | 74 | 1009.4 |
| 20260507170103 | 64 | 302 | 2.0 | 4.0 | 0.00 | 0.00 | 0.00 | 73 | 1009.3 |
| 20260507170003 | 64 | 300 | 2.0 | 4.0 | 0.00 | 0.00 | 0.00 | 73 | 1009.4 |
| 20260507165903 | 65 | 296 | 2.0 | 4.0 | 0.00 | 0.00 | 0.00 | 72 | 1009.4 |
| 20260507165824 | 65 | 285 | 2.0 | 3.0 | 0.00 | 0.00 | 0.00 | 70 | 1009.4 |
| 20260507165703 | 65 | 285 | 2.0 | 3.0 | 0.00 | 0.00 | 0.00 | 71 | 1009.4 |
| 20260507165603 | 65 | 285 | 2.0 | 3.0 | 0.00 | 0.00 | 0.00 | 71 | 1009.4 |
| 20260507165503 | 66 | 285 | 2.0 | 3.0 | 0.00 | 0.00 | 0.00 | 71 | 1009.4 |
| 20260507165403 | 66 | 285 | 1.0 | 3.0 | 0.00 | 0.00 | 0.00 | 70 | 1009.4 |
| 20260507165306 | 66 | 284 | 1.0 | 3.0 | 0.00 | 0.00 | 0.00 | 70 | 1009.4 |
| 20260507165224 | 66 | 284 | 1.0 | 3.0 | 0.00 | 0.00 | 0.00 | 70 | 1009.4 |
| 20260507165103 | 66 | 284 | 1.0 | 3.0 | 0.00 | 0.00 | 0.00 | 70 | 1009.2 |
| 20260507165003 | 66 | 284 | 1.0 | 3.0 | 0.00 | 0.00 | 0.00 | 70 | 1009.4 |
| 20260507164903 | 66 | 284 | 1.0 | 3.0 | 0.00 | 0.00 | 0.00 | 71 | 1009.4 |
| 20260507164803 | 66 | 284 | 1.0 | 3.0 | 0.00 | 0.00 | 0.00 | 71 | 1009.4 |
| 20260507164703 | 65 | 284 | 1.0 | 2.0 | 0.00 | 0.00 | 0.00 | 71 | 1009.6 |
| 20260507164603 | 65 | 284 | 1.0 | 2.0 | 0.00 | 0.00 | 0.00 | 71 | 1009.6 |
| 20260507164503 | 65 | 284 | 1.0 | 2.0 | 0.00 | 0.00 | 0.00 | 70 | 1009.6 |
| 20260507164403 | 65 | 284 | 1.0 | 2.0 | 0.00 | 0.00 | 0.00 | 71 | 1009.8 |
| 20260507164303 | 64 | 284 | 0.0 | 2.0 | 0.00 | 0.00 | 0.00 | 73 | 1009.7 |
| 20260507164203 | 64 | 284 | 0.0 | 2.0 | 0.00 | 0.00 | 0.00 | 73 | 1009.7 |
| 20260507164124 | 64 | 284 | 1.0 | 2.0 | 0.00 | 0.00 | 0.00 | 72 | 1009.8 |
| 20260507164003 | 64 | 284 | 1.0 | 2.0 | 0.00 | 0.00 | 0.00 | 72 | 1009.8 |
| 20260507163903 | 64 | 284 | 1.0 | 2.0 | 0.00 | 0.00 | 0.00 | 71 | 1010.0 |
| 20260507163824 | 64 | 284 | 1.0 | 2.0 | 0.00 | 0.00 | 0.00 | 71 | 1009.8 |
| 20260507163703 | 64 | 284 | 1.0 | 2.0 | 0.00 | 0.00 | 0.00 | 72 | 1009.9 |
| 20260507163603 | 64 | 284 | 1.0 | 2.0 | 0.00 | 0.00 | 0.00 | 72 | 1009.9 |
| 20260507163503 | 64 | 284 | 1.0 | 2.0 | 0.00 | 0.00 | 0.00 | 71 | 1009.9 |
| 20260507163403 | 64 | 284 | 1.0 | 2.0 | 0.00 | 0.00 | 0.00 | 70 | 1010.0 |
| 20260507163303 | 64 | 284 | 1.0 | 2.0 | 0.00 | 0.00 | 0.00 | 70 | 1010.0 |
| 20260507163203 | 64 | 284 | 1.0 | 2.0 | 0.00 | 0.00 | 0.00 | 71 | 1009.9 |
| 20260507163103 | 64 | 284 | 1.0 | 2.0 | 0.00 | 0.00 | 0.00 | 70 | 1009.9 |
| 20260507163003 | 65 | 284 | 1.0 | 2.0 | 0.00 | 0.00 | 0.00 | 70 | 1010.1 |
| 20260507162903 | 65 | 284 | 1.0 | 2.0 | 0.00 | 0.00 | 0.00 | 70 | 1010.0 |
| 20260507162803 | 65 | 284 | 1.0 | 2.0 | 0.00 | 0.00 | 0.00 | 70 | 1010.0 |
| 20260507162703 | 65 | 284 | 1.0 | 2.0 | 0.00 | 0.00 | 0.00 | 69 | 1010.0 |
| 20260507162603 | 66 | 284 | 1.0 | 2.0 | 0.00 | 0.00 | 0.00 | 67 | 1009.9 |
| 20260507162503 | 66 | 284 | 1.0 | 2.0 | 0.00 | 0.00 | 0.00 | 67 | 1009.9 |
| 20260507162403 | 66 | 284 | 0.0 | 2.0 | 0.00 | 0.00 | 0.00 | 66 | 1009.9 |
| 20260507162306 | 67 | 284 | 0.0 | 2.0 | 0.00 | 0.00 | 0.00 | 65 | 1010.0 |
| 20260507162224 | 67 | 284 | 0.0 | 2.0 | 0.00 | 0.00 | 0.00 | 64 | 1010.1 |
| 20260507162103 | 67 | 284 | 0.0 | 2.0 | 0.00 | 0.00 | 0.00 | 65 | 1009.9 |
| 20260507162003 | 66 | 284 | 0.0 | 3.0 | 0.00 | 0.00 | 0.00 | 68 | 1010.0 |
| 20260507161903 | 65 | 284 | 0.0 | 3.0 | 0.00 | 0.00 | 0.00 | 69 | 1010.0 |
| 20260507161803 | 65 | 284 | 1.0 | 3.0 | 0.00 | 0.00 | 0.00 | 71 | 1010.0 |
| 20260507161703 | 65 | 284 | 1.0 | 3.0 | 0.00 | 0.00 | 0.00 | 71 | 1010.0 |
| 20260507161603 | 65 | 284 | 1.0 | 3.0 | 0.00 | 0.00 | 0.00 | 72 | 1010.1 |
| 20260507161503 | 65 | 284 | 1.0 | 3.0 | 0.00 | 0.00 | 0.00 | 72 | 1009.9 |
| 20260507161404 | 64 | 284 | 1.0 | 3.0 | 0.00 | 0.00 | 0.00 | 71 | 1010.4 |
| 20260507161303 | 64 | 284 | 1.0 | 3.0 | 0.00 | 0.00 | 0.00 | 71 | 1010.4 |
| 20260507161203 | 64 | 284 | 1.0 | 3.0 | 0.00 | 0.00 | 0.00 | 70 | 1010.0 |
| 20260507161103 | 64 | 284 | 1.0 | 3.0 | 0.00 | 0.00 | 0.00 | 69 | 1010.2 |
| 20260507161003 | 65 | 284 | 1.0 | 3.0 | 0.00 | 0.00 | 0.00 | 69 | 1010.1 |
| 20260507160924 | 65 | 284 | 1.0 | 2.0 | 0.00 | 0.00 | 0.00 | 68 | 1010.1 |
| 20260507160803 | 65 | 284 | 1.0 | 2.0 | 0.00 | 0.00 | 0.00 | 70 | 1010.4 |
| 20260507160703 | 65 | 284 | 1.0 | 2.0 | 0.00 | 0.00 | 0.00 | 68 | 1010.2 |
| 20260507160603 | 65 | 284 | 0.0 | 2.0 | 0.00 | 0.00 | 0.00 | 71 | 1010.4 |
| 20260507160503 | 65 | 284 | 1.0 | 2.0 | 0.00 | 0.00 | 0.00 | 70 | 1010.1 |
| 20260507160403 | 65 | 284 | 1.0 | 2.0 | 0.00 | 0.00 | 0.00 | 69 | 1010.0 |
| 20260507160303 | 65 | 284 | 1.0 | 2.0 | 0.00 | 0.00 | 0.00 | 70 | 1010.2 |
| 20260507160203 | 65 | 284 | 1.0 | 2.0 | 0.00 | 0.00 | 0.00 | 70 | 1010.1 |
| 20260507160103 | 65 | 284 | 0.0 | 2.0 | 0.00 | 0.00 | 0.00 | 69 | 1010.1 |
| 20260507160003 | 64 | 284 | 1.0 | 2.0 | 0.00 | 0.00 | 0.00 | 70 | 1010.1 |
| 20260507155924 | 64 | 284 | 1.0 | 2.0 | 0.00 | 0.00 | 0.00 | 70 | 1010.1 |
| 20260507155803 | 64 | 284 | 1.0 | 2.0 | 0.00 | 0.00 | 0.00 | 72 | 1010.2 |
| 20260507155703 | 64 | 284 | 1.0 | 2.0 | 0.00 | 0.00 | 0.00 | 72 | 1010.2 |
| 20260507155603 | 64 | 284 | 1.0 | 2.0 | 0.00 | 0.00 | 0.00 | 70 | 1010.2 |
| 20260507155503 | 63 | 284 | 1.0 | 2.0 | 0.00 | 0.00 | 0.00 | 70 | 1010.1 |
| 20260507155424 | 64 | 284 | 1.0 | 2.0 | 0.00 | 0.00 | 0.00 | 70 | 1010.1 |
| 20260507155306 | 64 | 284 | 1.0 | 2.0 | 0.00 | 0.00 | 0.00 | 70 | 1010.0 |
| 20260507155224 | 63 | 284 | 1.0 | 2.0 | 0.00 | 0.00 | 0.00 | 73 | 1010.1 |
| 20260507155124 | 63 | 284 | 1.0 | 2.0 | 0.00 | 0.00 | 0.00 | 72 | 1009.8 |
| 20260507155003 | 63 | 284 | 1.0 | 3.0 | 0.00 | 0.00 | 0.00 | 71 | 1010.0 |
| 20260507154904 | 63 | 284 | 1.0 | 3.0 | 0.00 | 0.00 | 0.00 | 71 | 1010.1 |
| 20260507154803 | 63 | 284 | 2.0 | 3.0 | 0.00 | 0.00 | 0.00 | 73 | 1010.1 |
| 20260507154724 | 63 | 284 | 2.0 | 3.0 | 0.00 | 0.00 | 0.00 | 73 | 1010.1 |
| 20260507154603 | 63 | 284 | 2.0 | 3.0 | 0.00 | 0.00 | 0.00 | 71 | 1010.0 |
| 20260507154503 | 63 | 284 | 2.0 | 3.0 | 0.00 | 0.00 | 0.00 | 71 | 1010.4 |
| 20260507154403 | 63 | 284 | 2.0 | 3.0 | 0.00 | 0.00 | 0.00 | 71 | 1010.4 |
| 20260507154303 | 63 | 284 | 2.0 | 3.0 | 0.00 | 0.00 | 0.00 | 73 | 1010.0 |
| 20260507154203 | 63 | 284 | 2.0 | 3.0 | 0.00 | 0.00 | 0.00 | 72 | 1010.1 |
| 20260507154103 | 63 | 284 | 2.0 | 3.0 | 0.00 | 0.00 | 0.00 | 71 | 1010.1 |
| 20260507154003 | 64 | 284 | 2.0 | 3.0 | 0.00 | 0.00 | 0.00 | 71 | 1010.1 |
| 20260507153903 | 64 | 284 | 2.0 | 3.0 | 0.00 | 0.00 | 0.00 | 71 | 1010.2 |
| 20260507153804 | 64 | 287 | 2.0 | 3.0 | 0.00 | 0.00 | 0.00 | 71 | 1010.0 |
| 20260507153703 | 64 | 292 | 2.0 | 3.0 | 0.00 | 0.00 | 0.00 | 71 | 1010.4 |
| 20260507153603 | 64 | 295 | 2.0 | 3.0 | 0.00 | 0.00 | 0.00 | 71 | 1010.0 |
| 20260507153504 | 64 | 299 | 2.0 | 3.0 | 0.00 | 0.00 | 0.00 | 71 | 1010.1 |
| 20260507153403 | 63 | 302 | 2.0 | 3.0 | 0.00 | 0.00 | 0.00 | 72 | 1010.0 |
| 20260507153303 | 63 | 305 | 2.0 | 3.0 | 0.00 | 0.00 | 0.00 | 72 | 1010.1 |
| 20260507153203 | 63 | 307 | 2.0 | 3.0 | 0.00 | 0.00 | 0.00 | 72 | 1010.1 |
| 20260507153103 | 63 | 319 | 2.0 | 4.0 | 0.00 | 0.00 | 0.00 | 72 | 1009.9 |
| 20260507153003 | 63 | 320 | 2.0 | 4.0 | 0.00 | 0.00 | 0.00 | 72 | 1010.1 |
| 20260507152903 | 63 | 324 | 2.0 | 4.0 | 0.00 | 0.00 | 0.00 | 72 | 1010.0 |
| 20260507152803 | 64 | 325 | 2.0 | 4.0 | 0.00 | 0.00 | 0.00 | 72 | 1009.8 |
| 20260507152703 | 64 | 326 | 2.0 | 4.0 | 0.00 | 0.00 | 0.00 | 72 | 1010.0 |
| 20260507152603 | 64 | 330 | 2.0 | 4.0 | 0.00 | 0.00 | 0.00 | 72 | 1009.9 |
| 20260507152503 | 64 | 330 | 2.0 | 4.0 | 0.00 | 0.00 | 0.00 | 72 | 1009.9 |
| 20260507152403 | 64 | 326 | 2.0 | 4.0 | 0.00 | 0.00 | 0.00 | 72 | 1010.0 |
| 20260507152306 | 65 | 324 | 2.0 | 4.0 | 0.00 | 0.00 | 0.00 | 71 | 1009.8 |
| 20260507152203 | 66 | 322 | 2.0 | 4.0 | 0.00 | 0.00 | 0.00 | 71 | 1009.8 |
| 20260507152103 | 66 | 319 | 2.0 | 4.0 | 0.00 | 0.00 | 0.00 | 71 | 1010.0 |
| 20260507152003 | 66 | 307 | 2.0 | 4.0 | 0.00 | 0.00 | 0.00 | 71 | 1010.1 |
| 20260507151903 | 66 | 300 | 3.0 | 6.0 | 0.00 | 0.00 | 0.00 | 70 | 1009.8 |
| 20260507151803 | 66 | 304 | 3.0 | 6.0 | 0.00 | 0.00 | 0.00 | 71 | 1009.8 |
| 20260507151703 | 66 | 299 | 3.0 | 6.0 | 0.00 | 0.00 | 0.00 | 71 | 1009.9 |
| 20260507151603 | 65 | 291 | 3.0 | 6.0 | 0.00 | 0.00 | 0.00 | 72 | 1010.0 |
| 20260507151524 | 65 | 291 | 3.0 | 6.0 | 0.00 | 0.00 | 0.00 | 72 | 1010.0 |
| 20260507151403 | 64 | 290 | 3.0 | 6.0 | 0.00 | 0.00 | 0.00 | 74 | 1010.0 |
| 20260507151303 | 64 | 289 | 3.0 | 6.0 | 0.00 | 0.00 | 0.00 | 72 | 1010.0 |
| 20260507151203 | 64 | 289 | 3.0 | 6.0 | 0.00 | 0.00 | 0.00 | 72 | 1010.0 |
| 20260507151124 | 64 | 289 | 3.0 | 6.0 | 0.00 | 0.00 | 0.00 | 72 | 1010.0 |
| 20260507151003 | 64 | 299 | 3.0 | 6.0 | 0.00 | 0.00 | 0.00 | 73 | 1010.2 |
| 20260507150903 | 64 | 299 | 3.0 | 6.0 | 0.00 | 0.00 | 0.00 | 73 | 1010.2 |
| 20260507150803 | 64 | 305 | 3.0 | 4.0 | 0.00 | 0.00 | 0.00 | 74 | 1010.1 |
| 20260507150704 | 64 | 306 | 3.0 | 4.0 | 0.00 | 0.00 | 0.00 | 73 | 1010.0 |
| 20260507150603 | 64 | 304 | 3.0 | 6.0 | 0.00 | 0.00 | 0.00 | 73 | 1009.8 |
| 20260507150503 | 64 | 298 | 3.0 | 6.0 | 0.00 | 0.00 | 0.00 | 74 | 1010.1 |
| 20260507150403 | 64 | 295 | 3.0 | 6.0 | 0.00 | 0.00 | 0.00 | 74 | 1010.1 |
| 20260507150324 | 64 | 293 | 3.0 | 6.0 | 0.00 | 0.00 | 0.00 | 74 | 1009.9 |
| 20260507150203 | 64 | 294 | 3.0 | 6.0 | 0.00 | 0.00 | 0.00 | 73 | 1009.9 |
| 20260507150103 | 64 | 295 | 3.0 | 6.0 | 0.00 | 0.00 | 0.00 | 74 | 1009.9 |
| 20260507150003 | 64 | 291 | 3.0 | 6.0 | 0.00 | 0.00 | 0.00 | 73 | 1010.1 |
| 20260507145903 | 64 | 286 | 3.0 | 6.0 | 0.00 | 0.00 | 0.00 | 74 | 1009.9 |
| 20260507145803 | 64 | 285 | 3.0 | 6.0 | 0.00 | 0.00 | 0.00 | 73 | 1009.9 |
| 20260507145703 | 65 | 285 | 3.0 | 6.0 | 0.00 | 0.00 | 0.00 | 71 | 1010.0 |
| 20260507145603 | 65 | 285 | 3.0 | 6.0 | 0.00 | 0.00 | 0.00 | 71 | 1010.0 |
| 20260507145503 | 65 | 298 | 3.0 | 7.0 | 0.00 | 0.00 | 0.00 | 72 | 1010.2 |
| 20260507145403 | 65 | 314 | 3.0 | 7.0 | 0.00 | 0.00 | 0.00 | 71 | 1010.0 |
| 20260507145306 | 64 | 321 | 3.0 | 7.0 | 0.00 | 0.00 | 0.00 | 73 | 1009.9 |
| 20260507145203 | 63 | 331 | 3.0 | 7.0 | 0.00 | 0.00 | 0.00 | 75 | 1010.1 |
| 20260507145103 | 63 | 340 | 3.0 | 7.0 | 0.00 | 0.00 | 0.00 | 75 | 1010.0 |
| 20260507145024 | 63 | 346 | 3.0 | 7.0 | 0.00 | 0.00 | 0.00 | 75 | 1010.1 |
| 20260507144903 | 63 | 350 | 4.0 | 7.0 | 0.00 | 0.00 | 0.00 | 74 | 1009.9 |
| 20260507144803 | 63 | 357 | 3.0 | 7.0 | 0.00 | 0.00 | 0.00 | 75 | 1010.0 |
| 20260507144704 | 63 | 1 | 4.0 | 7.0 | 0.00 | 0.00 | 0.00 | 75 | 1010.2 |
| 20260507144603 | 63 | 360 | 4.0 | 7.0 | 0.00 | 0.00 | 0.00 | 74 | 1010.2 |
| 20260507144503 | 62 | 4 | 4.0 | 7.0 | 0.00 | 0.00 | 0.00 | 76 | 1009.8 |
| 20260507144403 | 61 | 5 | 4.0 | 7.0 | 0.00 | 0.00 | 0.00 | 76 | 1010.0 |
| 20260507144303 | 61 | 5 | 4.0 | 7.0 | 0.00 | 0.00 | 0.00 | 75 | 1010.0 |
| 20260507144203 | 61 | 5 | 4.0 | 7.0 | 0.00 | 0.00 | 0.00 | 76 | 1010.0 |
| 20260507144124 | 61 | 5 | 4.0 | 7.0 | 0.00 | 0.00 | 0.00 | 76 | 1010.0 |
| 20260507144003 | 61 | 6 | 3.0 | 7.0 | 0.00 | 0.00 | 0.00 | 76 | 1010.0 |
| 20260507143903 | 61 | 6 | 3.0 | 7.0 | 0.00 | 0.00 | 0.00 | 76 | 1010.0 |
| 20260507143803 | 61 | 6 | 3.0 | 6.0 | 0.00 | 0.00 | 0.00 | 77 | 1010.0 |
| 20260507143703 | 61 | 6 | 2.0 | 6.0 | 0.00 | 0.00 | 0.00 | 77 | 1010.2 |
| 20260507143603 | 61 | 358 | 2.0 | 4.0 | 0.00 | 0.00 | 0.00 | 77 | 1010.2 |
| 20260507143503 | 61 | 360 | 2.0 | 4.0 | 0.00 | 0.00 | 0.00 | 77 | 1010.2 |
| 20260507143403 | 61 | 349 | 2.0 | 4.0 | 0.00 | 0.00 | 0.00 | 77 | 1010.2 |
| 20260507143303 | 61 | 348 | 2.0 | 4.0 | 0.00 | 0.00 | 0.00 | 77 | 1010.6 |
| 20260507143224 | 61 | 345 | 2.0 | 4.0 | 0.00 | 0.00 | 0.00 | 78 | 1010.6 |
| 20260507143103 | 61 | 344 | 1.0 | 4.0 | 0.00 | 0.00 | 0.00 | 78 | 1010.7 |
| 20260507143003 | 61 | 345 | 1.0 | 4.0 | 0.00 | 0.00 | 0.00 | 79 | 1010.6 |
| 20260507142903 | 61 | 346 | 1.0 | 4.0 | 0.00 | 0.00 | 0.00 | 79 | 1010.8 |
| 20260507142803 | 61 | 346 | 1.0 | 4.0 | 0.00 | 0.00 | 0.00 | 79 | 1010.8 |
| 20260507142703 | 61 | 347 | 1.0 | 4.0 | 0.00 | 0.00 | 0.00 | 78 | 1010.9 |
| 20260507142603 | 61 | 354 | 1.0 | 3.0 | 0.00 | 0.00 | 0.00 | 78 | 1010.8 |
| 20260507142503 | 61 | 352 | 1.0 | 3.0 | 0.00 | 0.00 | 0.00 | 79 | 1010.8 |
| 20260507142403 | 61 | 352 | 1.0 | 2.0 | 0.00 | 0.00 | 0.00 | 79 | 1011.0 |
| 20260507142306 | 61 | 354 | 1.0 | 2.0 | 0.00 | 0.00 | 0.00 | 79 | 1011.0 |
| 20260507142203 | 61 | 354 | 1.0 | 2.0 | 0.00 | 0.00 | 0.00 | 79 | 1011.0 |
| 20260507142124 | 61 | 354 | 1.0 | 2.0 | 0.00 | 0.00 | 0.00 | 79 | 1011.0 |
| 20260507142003 | 61 | 353 | 1.0 | 2.0 | 0.00 | 0.00 | 0.00 | 79 | 1011.1 |
| 20260507141903 | 61 | 354 | 1.0 | 2.0 | 0.00 | 0.00 | 0.00 | 80 | 1011.0 |
| 20260507141803 | 61 | 354 | 2.0 | 3.0 | 0.00 | 0.00 | 0.00 | 79 | 1011.1 |
| 20260507141703 | 61 | 354 | 2.0 | 3.0 | 0.00 | 0.00 | 0.00 | 79 | 1010.9 |
| 20260507141603 | 61 | 354 | 2.0 | 3.0 | 0.00 | 0.00 | 0.00 | 79 | 1010.9 |
| 20260507141503 | 61 | 354 | 2.0 | 3.0 | 0.00 | 0.00 | 0.00 | 79 | 1011.0 |
| 20260507141403 | 61 | 3 | 2.0 | 4.0 | 0.00 | 0.00 | 0.00 | 79 | 1011.0 |
| 20260507141303 | 61 | 7 | 2.0 | 4.0 | 0.00 | 0.00 | 0.00 | 79 | 1011.2 |
| 20260507141203 | 61 | 6 | 2.0 | 6.0 | 0.00 | 0.00 | 0.00 | 79 | 1010.8 |
| 20260507141124 | 61 | 5 | 2.0 | 6.0 | 0.00 | 0.00 | 0.00 | 79 | 1011.0 |
| 20260507141003 | 61 | 5 | 3.0 | 6.0 | 0.00 | 0.00 | 0.00 | 79 | 1011.0 |
| 20260507140903 | 61 | 6 | 3.0 | 6.0 | 0.00 | 0.00 | 0.00 | 79 | 1011.0 |
| 20260507140824 | 61 | 7 | 2.0 | 6.0 | 0.00 | 0.00 | 0.00 | 79 | 1010.9 |
| 20260507140724 | 61 | 7 | 2.0 | 6.0 | 0.00 | 0.00 | 0.00 | 79 | 1010.9 |
| 20260507140603 | 61 | 8 | 2.0 | 6.0 | 0.00 | 0.00 | 0.00 | 79 | 1011.0 |
| 20260507140503 | 61 | 5 | 3.0 | 6.0 | 0.00 | 0.00 | 0.00 | 78 | 1010.9 |
| 20260507140403 | 61 | 3 | 3.0 | 7.0 | 0.00 | 0.00 | 0.00 | 78 | 1011.0 |
| 20260507140303 | 61 | 4 | 3.0 | 7.0 | 0.00 | 0.00 | 0.00 | 78 | 1010.9 |
| 20260507140203 | 62 | 5 | 2.0 | 7.0 | 0.00 | 0.00 | 0.00 | 78 | 1010.8 |
| 20260507140103 | 62 | 4 | 3.0 | 7.0 | 0.00 | 0.00 | 0.00 | 78 | 1011.0 |
| 20260507140024 | 62 | 4 | 3.0 | 7.0 | 0.00 | 0.00 | 0.00 | 78 | 1011.0 |
| 20260507135925 | 62 | 5 | 2.0 | 7.0 | 0.00 | 0.00 | 0.00 | 78 | 1011.0 |
| 20260507135824 | 61 | 3 | 3.0 | 7.0 | 0.00 | 0.00 | 0.00 | 78 | 1010.9 |
| 20260507135703 | 61 | 2 | 3.0 | 7.0 | 0.00 | 0.00 | 0.00 | 77 | 1010.8 |
| 20260507135603 | 61 | 3 | 3.0 | 7.0 | 0.00 | 0.00 | 0.00 | 77 | 1010.9 |
| 20260507135503 | 62 | 3 | 3.0 | 7.0 | 0.00 | 0.00 | 0.00 | 77 | 1010.8 |
| 20260507135403 | 62 | 1 | 3.0 | 7.0 | 0.00 | 0.00 | 0.00 | 77 | 1010.8 |
| 20260507135306 | 62 | 358 | 3.0 | 7.0 | 0.00 | 0.00 | 0.00 | 77 | 1011.0 |
| 20260507135203 | 62 | 359 | 3.0 | 7.0 | 0.00 | 0.00 | 0.00 | 76 | 1011.0 |
| 20260507135104 | 62 | 357 | 3.0 | 7.0 | 0.00 | 0.00 | 0.00 | 77 | 1011.0 |
| 20260507135003 | 62 | 355 | 3.0 | 8.0 | 0.00 | 0.00 | 0.00 | 77 | 1010.9 |
| 20260507134903 | 62 | 357 | 3.0 | 8.0 | 0.00 | 0.00 | 0.00 | 76 | 1010.8 |
| 20260507134803 | 63 | 354 | 3.0 | 8.0 | 0.00 | 0.00 | 0.00 | 77 | 1010.7 |
| 20260507134703 | 63 | 357 | 3.0 | 8.0 | 0.00 | 0.00 | 0.00 | 76 | 1010.8 |
| 20260507134603 | 63 | 352 | 3.0 | 8.0 | 0.00 | 0.00 | 0.00 | 76 | 1010.8 |
| 20260507134503 | 63 | 352 | 3.0 | 8.0 | 0.00 | 0.00 | 0.00 | 76 | 1010.9 |
| 20260507134403 | 63 | 353 | 3.0 | 8.0 | 0.00 | 0.00 | 0.00 | 76 | 1010.9 |
| 20260507134303 | 63 | 353 | 3.0 | 8.0 | 0.00 | 0.00 | 0.00 | 76 | 1010.9 |
| 20260507134203 | 63 | 349 | 3.0 | 8.0 | 0.00 | 0.00 | 0.00 | 76 | 1010.8 |
| 20260507134103 | 64 | 347 | 3.0 | 8.0 | 0.00 | 0.00 | 0.00 | 76 | 1010.8 |
| 20260507134003 | 64 | 348 | 3.0 | 8.0 | 0.00 | 0.00 | 0.00 | 76 | 1010.8 |
| 20260507133903 | 64 | 352 | 3.0 | 7.0 | 0.00 | 0.00 | 0.00 | 76 | 1010.6 |
| 20260507133803 | 64 | 348 | 3.0 | 7.0 | 0.00 | 0.00 | 0.00 | 77 | 1010.7 |
| 20260507133703 | 64 | 351 | 3.0 | 7.0 | 0.00 | 0.00 | 0.00 | 78 | 1010.6 |
| 20260507133603 | 63 | 353 | 3.0 | 7.0 | 0.00 | 0.00 | 0.00 | 80 | 1010.7 |
| 20260507133503 | 64 | 354 | 4.0 | 9.0 | 0.00 | 0.00 | 0.00 | 77 | 1010.7 |
| 20260507133403 | 64 | 354 | 4.0 | 9.0 | 0.00 | 0.00 | 0.00 | 77 | 1010.6 |
| 20260507133303 | 64 | 352 | 4.0 | 9.0 | 0.00 | 0.00 | 0.00 | 78 | 1010.7 |
| 20260507133203 | 63 | 359 | 4.0 | 11.0 | 0.00 | 0.00 | 0.00 | 77 | 1010.4 |
| 20260507133103 | 63 | 359 | 4.0 | 11.0 | 0.00 | 0.00 | 0.00 | 79 | 1010.5 |
| 20260507133003 | 63 | 359 | 5.0 | 11.0 | 0.00 | 0.00 | 0.00 | 79 | 1010.7 |
| 20260507132903 | 62 | 358 | 5.0 | 11.0 | 0.00 | 0.00 | 0.00 | 79 | 1010.6 |
| 20260507132824 | 62 | 358 | 5.0 | 11.0 | 0.00 | 0.00 | 0.00 | 79 | 1010.6 |
| 20260507132703 | 61 | 356 | 5.0 | 11.0 | 0.00 | 0.00 | 0.00 | 79 | 1010.7 |
| 20260507132603 | 61 | 355 | 5.0 | 11.0 | 0.00 | 0.00 | 0.00 | 78 | 1010.5 |
| 20260507132503 | 61 | 354 | 5.0 | 11.0 | 0.00 | 0.00 | 0.00 | 78 | 1010.6 |
| 20260507132404 | 62 | 358 | 5.0 | 11.0 | 0.00 | 0.00 | 0.00 | 79 | 1010.6 |
| 20260507132324 | 62 | 357 | 5.0 | 11.0 | 0.00 | 0.00 | 0.00 | 79 | 1010.6 |
| 20260507132203 | 62 | 358 | 5.0 | 11.0 | 0.00 | 0.00 | 0.00 | 78 | 1010.6 |
| 20260507132103 | 62 | 356 | 5.0 | 10.0 | 0.00 | 0.00 | 0.00 | 78 | 1010.7 |
| 20260507132024 | 62 | 360 | 5.0 | 11.0 | 0.00 | 0.00 | 0.00 | 79 | 1010.7 |
| 20260507131903 | 62 | 358 | 5.0 | 11.0 | 0.00 | 0.00 | 0.00 | 79 | 1010.6 |
| 20260507131824 | 62 | 357 | 5.0 | 11.0 | 0.00 | 0.00 | 0.00 | 78 | 1010.6 |
| 20260507131703 | 63 | 3 | 6.0 | 13.0 | 0.00 | 0.00 | 0.00 | 78 | 1010.6 |
| 20260507131604 | 63 | 3 | 5.0 | 13.0 | 0.00 | 0.00 | 0.00 | 78 | 1010.7 |
| 20260507131503 | 63 | 2 | 5.0 | 13.0 | 0.00 | 0.00 | 0.00 | 78 | 1010.5 |
| 20260507131403 | 63 | 360 | 5.0 | 13.0 | 0.00 | 0.00 | 0.00 | 79 | 1010.5 |
| 20260507131303 | 63 | 360 | 5.0 | 13.0 | 0.00 | 0.00 | 0.00 | 79 | 1010.6 |
| 20260507131203 | 63 | 358 | 5.0 | 13.0 | 0.00 | 0.00 | 0.00 | 80 | 1010.6 |
| 20260507131103 | 63 | 358 | 5.0 | 13.0 | 0.00 | 0.00 | 0.00 | 80 | 1010.6 |
| 20260507131003 | 63 | 358 | 5.0 | 13.0 | 0.00 | 0.00 | 0.00 | 79 | 1010.4 |
| 20260507130903 | 63 | 352 | 4.0 | 13.0 | 0.00 | 0.00 | 0.00 | 79 | 1010.6 |
| 20260507130804 | 63 | 351 | 4.0 | 13.0 | 0.00 | 0.00 | 0.00 | 79 | 1010.5 |
| 20260507130703 | 63 | 351 | 4.0 | 13.0 | 0.00 | 0.00 | 0.00 | 79 | 1010.5 |
| 20260507130603 | 63 | 344 | 4.0 | 10.0 | 0.00 | 0.00 | 0.00 | 79 | 1010.4 |
| 20260507130503 | 63 | 346 | 4.0 | 10.0 | 0.00 | 0.00 | 0.00 | 80 | 1010.9 |
| 20260507130403 | 63 | 354 | 4.0 | 10.0 | 0.00 | 0.00 | 0.00 | 79 | 1010.5 |
| 20260507130303 | 64 | 354 | 4.0 | 10.0 | 0.00 | 0.00 | 0.00 | 78 | 1010.4 |
| 20260507130203 | 64 | 357 | 4.0 | 10.0 | 0.00 | 0.00 | 0.00 | 79 | 1010.6 |
| 20260507130104 | 63 | 2 | 4.0 | 10.0 | 0.00 | 0.00 | 0.00 | 80 | 1010.6 |
| 20260507130003 | 62 | 1 | 5.0 | 10.0 | 0.00 | 0.00 | 0.00 | 81 | 1010.6 |
| 20260507125903 | 62 | 1 | 5.0 | 10.0 | 0.00 | 0.00 | 0.00 | 81 | 1010.6 |
| 20260507125803 | 62 | 3 | 5.0 | 10.0 | 0.00 | 0.00 | 0.00 | 81 | 1010.7 |
| 20260507125703 | 62 | 4 | 5.0 | 10.0 | 0.00 | 0.00 | 0.00 | 81 | 1010.9 |
| 20260507125624 | 62 | 3 | 5.0 | 10.0 | 0.00 | 0.00 | 0.00 | 81 | 1010.7 |
| 20260507125503 | 62 | 4 | 5.0 | 10.0 | 0.00 | 0.00 | 0.00 | 80 | 1010.7 |
| 20260507125403 | 62 | 1 | 5.0 | 10.0 | 0.00 | 0.00 | 0.00 | 79 | 1010.7 |
| 20260507125306 | 62 | 355 | 6.0 | 10.0 | 0.00 | 0.00 | 0.00 | 78 | 1010.9 |
| 20260507125203 | 62 | 355 | 5.0 | 10.0 | 0.00 | 0.00 | 0.00 | 79 | 1010.6 |
| 20260507125103 | 62 | 355 | 6.0 | 11.0 | 0.00 | 0.00 | 0.00 | 79 | 1010.8 |
| 20260507125003 | 62 | 352 | 6.0 | 11.0 | 0.00 | 0.00 | 0.00 | 79 | 1010.7 |
| 20260507124903 | 62 | 350 | 6.0 | 11.0 | 0.00 | 0.00 | 0.00 | 79 | 1010.7 |
| 20260507124803 | 62 | 348 | 6.0 | 11.0 | 0.00 | 0.00 | 0.00 | 79 | 1010.6 |
| 20260507124703 | 62 | 347 | 5.0 | 11.0 | 0.00 | 0.00 | 0.00 | 78 | 1010.7 |
| 20260507124603 | 62 | 347 | 5.0 | 11.0 | 0.00 | 0.00 | 0.00 | 77 | 1010.8 |
| 20260507124524 | 62 | 347 | 5.0 | 11.0 | 0.00 | 0.00 | 0.00 | 77 | 1010.8 |
| 20260507124403 | 63 | 347 | 5.0 | 11.0 | 0.00 | 0.00 | 0.00 | 78 | 1010.8 |
| 20260507124303 | 63 | 348 | 5.0 | 11.0 | 0.00 | 0.00 | 0.00 | 78 | 1011.1 |
| 20260507124224 | 64 | 348 | 4.0 | 11.0 | 0.00 | 0.00 | 0.00 | 77 | 1010.8 |
| 20260507124103 | 64 | 345 | 4.0 | 11.0 | 0.00 | 0.00 | 0.00 | 77 | 1010.7 |
| 20260507124003 | 64 | 332 | 4.0 | 9.0 | 0.00 | 0.00 | 0.00 | 76 | 1010.8 |
| 20260507123924 | 64 | 333 | 3.0 | 9.0 | 0.00 | 0.00 | 0.00 | 78 | 1010.9 |
| 20260507123803 | 64 | 336 | 3.0 | 10.0 | 0.00 | 0.00 | 0.00 | 80 | 1010.9 |
| 20260507123703 | 64 | 339 | 4.0 | 10.0 | 0.00 | 0.00 | 0.00 | 79 | 1010.8 |
| 20260507123603 | 64 | 342 | 4.0 | 10.0 | 0.00 | 0.00 | 0.00 | 78 | 1010.9 |
| 20260507123503 | 64 | 344 | 4.0 | 10.0 | 0.00 | 0.00 | 0.00 | 80 | 1010.9 |
| 20260507123403 | 64 | 343 | 4.0 | 10.0 | 0.00 | 0.00 | 0.00 | 80 | 1010.8 |
| 20260507123303 | 64 | 344 | 5.0 | 10.0 | 0.00 | 0.00 | 0.00 | 79 | 1010.9 |
| 20260507123203 | 63 | 344 | 5.0 | 10.0 | 0.00 | 0.00 | 0.00 | 79 | 1011.0 |
| 20260507123103 | 63 | 348 | 5.0 | 10.0 | 0.00 | 0.00 | 0.00 | 80 | 1011.0 |
| 20260507123003 | 63 | 351 | 5.0 | 10.0 | 0.00 | 0.00 | 0.00 | 79 | 1010.9 |
| 20260507122903 | 63 | 354 | 5.0 | 10.0 | 0.00 | 0.00 | 0.00 | 79 | 1011.0 |
| 20260507122803 | 63 | 355 | 4.0 | 8.0 | 0.00 | 0.00 | 0.00 | 79 | 1010.9 |
| 20260507122703 | 63 | 355 | 4.0 | 8.0 | 0.00 | 0.00 | 0.00 | 79 | 1010.9 |
| 20260507122603 | 63 | 357 | 4.0 | 8.0 | 0.00 | 0.00 | 0.00 | 79 | 1011.0 |
| 20260507122503 | 63 | 356 | 4.0 | 8.0 | 0.00 | 0.00 | 0.00 | 78 | 1010.9 |
| 20260507122403 | 63 | 354 | 4.0 | 8.0 | 0.00 | 0.00 | 0.00 | 80 | 1011.0 |
| 20260507122306 | 63 | 350 | 4.0 | 8.0 | 0.00 | 0.00 | 0.00 | 80 | 1011.0 |